Wetterdaten: Montag, 17.05.2010
Datum Zeit Temp. Innen Temp. Aussen UV X Diff Temp. Feuchte Inne Feuchte Auss Sonnenschein Luftdruck Regen ab 0,1 Wind Sonnenschein Windben
17.05.2010 00:00 17,1 C 9,1 C 0,0 UV-I 0,0 C 49 % 75 % 0 % 1018,8 hPa 0,0 l/m 0,0 km/h (0 Bft) 0 min 0,0 km/h (0 Bft)
17.05.2010 00:04 17,1 C 8,9 C 0,0 UV-I 0,0 C 49 % 75 % 0 % 1018,8 hPa 0,0 l/m 0,0 km/h (0 Bft) 0 min 0,0 km/h (0 Bft)
17.05.2010 00:06 17,1 C 8,9 C 0,0 UV-I 0,0 C 49 % 76 % 0 % 1018,8 hPa 0,0 l/m 0,0 km/h (0 Bft) 0 min 0,0 km/h (0 Bft)
17.05.2010 00:10 17,1 C 8,9 C 0,0 UV-I 0,0 C 49 % 77 % 0 % 1018,8 hPa 0,0 l/m 0,0 km/h (0 Bft) 0 min 0,0 km/h (0 Bft)
17.05.2010 00:12 17,1 C 8,8 C 0,0 UV-I 0,0 C 49 % 77 % 0 % 1018,9 hPa 0,0 l/m 0,0 km/h (0 Bft) 0 min 0,0 km/h (0 Bft)
17.05.2010 00:14 17,1 C 8,7 C 0,0 UV-I 0,0 C 49 % 77 % 0 % 1018,9 hPa 0,0 l/m 0,0 km/h (0 Bft) 0 min 0,0 km/h (0 Bft)
17.05.2010 00:16 17,1 C 8,7 C 0,0 UV-I 0,0 C 49 % 77 % 0 % 1018,9 hPa 0,0 l/m 0,0 km/h (0 Bft) 0 min 0,0 km/h (0 Bft)
17.05.2010 00:18 17,1 C 8,6 C 0,0 UV-I 0,0 C 49 % 77 % 0 % 1018,9 hPa 0,0 l/m 0,0 km/h (0 Bft) 0 min 0,0 km/h (0 Bft)
17.05.2010 00:20 17,0 C 8,6 C 0,0 UV-I 0,0 C 49 % 77 % 0 % 1018,9 hPa 0,0 l/m 0,0 km/h (0 Bft) 0 min 0,0 km/h (0 Bft)
17.05.2010 00:22 17,0 C 8,6 C 0,0 UV-I 0,0 C 49 % 77 % 0 % 1018,9 hPa 0,0 l/m 0,0 km/h (0 Bft) 0 min 0,0 km/h (0 Bft)
17.05.2010 00:24 17,0 C 8,5 C 0,0 UV-I 0,0 C 49 % 78 % 0 % 1018,9 hPa 0,0 l/m 0,0 km/h (0 Bft) 0 min 0,0 km/h (0 Bft)
17.05.2010 00:26 17,0 C 8,5 C 0,0 UV-I 0,0 C 49 % 78 % 0 % 1018,9 hPa 0,0 l/m 0,0 km/h (0 Bft) 0 min 0,0 km/h (0 Bft)
17.05.2010 00:28 17,0 C 8,4 C 0,0 UV-I 0,0 C 49 % 78 % 0 % 1018,9 hPa 0,0 l/m 0,0 km/h (0 Bft) 0 min 0,0 km/h (0 Bft)
17.05.2010 00:30 17,0 C 8,4 C 0,0 UV-I 0,0 C 49 % 78 % 0 % 1018,9 hPa 0,0 l/m 0,0 km/h (0 Bft) 0 min 0,0 km/h (0 Bft)
17.05.2010 00:32 17,0 C 8,4 C 0,0 UV-I 0,0 C 49 % 79 % 0 % 1018,9 hPa 0,0 l/m 0,0 km/h (0 Bft) 0 min 0,0 km/h (0 Bft)
17.05.2010 00:34 17,0 C 8,3 C 0,0 UV-I 0,0 C 49 % 79 % 0 % 1018,9 hPa 0,0 l/m 0,0 km/h (0 Bft) 0 min 0,0 km/h (0 Bft)
17.05.2010 00:36 17,0 C 8,3 C 0,0 UV-I 0,0 C 49 % 79 % 0 % 1018,9 hPa 0,0 l/m 0,0 km/h (0 Bft) 0 min 0,0 km/h (0 Bft)
17.05.2010 00:38 17,0 C 8,2 C 0,0 UV-I 0,0 C 50 % 79 % 0 % 1018,9 hPa 0,0 l/m 0,0 km/h (0 Bft) 0 min 0,0 km/h (0 Bft)
17.05.2010 00:40 17,0 C 8,3 C 0,0 UV-I 0,0 C 50 % 79 % 0 % 1018,9 hPa 0,0 l/m 0,0 km/h (0 Bft) 0 min 0,0 km/h (0 Bft)
17.05.2010 00:42 17,0 C 8,3 C 0,0 UV-I 0,0 C 50 % 79 % 0 % 1018,9 hPa 0,0 l/m 0,0 km/h (0 Bft) 0 min 0,0 km/h (0 Bft)
17.05.2010 00:44 17,0 C 8,1 C 0,0 UV-I 0,0 C 50 % 79 % 0 % 1018,9 hPa 0,0 l/m 0,0 km/h (0 Bft) 0 min 0,0 km/h (0 Bft)
17.05.2010 00:48 16,9 C 8,0 C 0,0 UV-I 0,0 C 50 % 80 % 0 % 1018,9 hPa 0,0 l/m 0,0 km/h (0 Bft) 0 min 0,0 km/h (0 Bft)
17.05.2010 00:50 17,0 C 8,0 C 0,0 UV-I 0,0 C 50 % 80 % 0 % 1018,9 hPa 0,0 l/m 0,0 km/h (0 Bft) 0 min 0,0 km/h (0 Bft)
17.05.2010 00:52 16,9 C 8,1 C 0,0 UV-I 0,0 C 50 % 80 % 0 % 1019,2 hPa 0,0 l/m 0,0 km/h (0 Bft) 0 min 0,0 km/h (0 Bft)
17.05.2010 00:54 16,9 C 8,0 C 0,0 UV-I 0,0 C 50 % 80 % 0 % 1019,2 hPa 0,0 l/m 0,0 km/h (0 Bft) 0 min 0,0 km/h (0 Bft)
17.05.2010 00:56 16,9 C 7,9 C 0,0 UV-I 0,0 C 50 % 80 % 0 % 1019,2 hPa 0,0 l/m 0,0 km/h (0 Bft) 0 min 0,0 km/h (0 Bft)
17.05.2010 01:00 16,9 C 7,8 C 0,0 UV-I 0,0 C 50 % 80 % 0 % 1019,2 hPa 0,0 l/m 0,0 km/h (0 Bft) 0 min 0,0 km/h (0 Bft)
17.05.2010 01:02 16,9 C 7,9 C 0,0 UV-I 0,0 C 50 % 81 % 0 % 1019,2 hPa 0,0 l/m 0,0 km/h (0 Bft) 0 min 0,0 km/h (0 Bft)
17.05.2010 01:04 16,9 C 7,8 C 0,0 UV-I 0,0 C 50 % 81 % 0 % 1019,2 hPa 0,0 l/m 0,0 km/h (0 Bft) 0 min 0,0 km/h (0 Bft)
17.05.2010 01:06 16,9 C 7,7 C 0,0 UV-I 0,0 C 50 % 81 % 0 % 1019,2 hPa 0,0 l/m 0,0 km/h (0 Bft) 0 min 0,0 km/h (0 Bft)
17.05.2010 01:08 16,9 C 7,7 C 0,0 UV-I 0,0 C 50 % 81 % 0 % 1019,2 hPa 0,0 l/m 0,0 km/h (0 Bft) 0 min 0,0 km/h (0 Bft)
17.05.2010 01:10 16,9 C 7,7 C 0,0 UV-I 0,0 C 50 % 81 % 0 % 1019,2 hPa 0,0 l/m 0,0 km/h (0 Bft) 0 min 0,0 km/h (0 Bft)
17.05.2010 01:12 16,8 C 7,6 C 0,0 UV-I 0,0 C 50 % 81 % 0 % 1018,9 hPa 0,0 l/m 0,0 km/h (0 Bft) 0 min 0,0 km/h (0 Bft)
17.05.2010 01:14 16,8 C 7,6 C 0,0 UV-I 0,0 C 50 % 81 % 0 % 1018,9 hPa 0,0 l/m 0,0 km/h (0 Bft) 0 min 0,0 km/h (0 Bft)
17.05.2010 01:16 16,8 C 7,6 C 0,0 UV-I 0,0 C 50 % 82 % 0 % 1018,9 hPa 0,0 l/m 0,0 km/h (0 Bft) 0 min 0,0 km/h (0 Bft)
17.05.2010 01:18 16,8 C 7,7 C 0,0 UV-I 0,0 C 50 % 82 % 0 % 1018,9 hPa 0,0 l/m 0,0 km/h (0 Bft) 0 min 0,0 km/h (0 Bft)
17.05.2010 01:20 16,8 C 7,6 C 0,0 UV-I 0,0 C 50 % 82 % 0 % 1018,9 hPa 0,0 l/m 0,0 km/h (0 Bft) 0 min 0,0 km/h (0 Bft)
17.05.2010 01:22 16,8 C 7,6 C 0,0 UV-I 0,0 C 50 % 82 % 0 % 1018,9 hPa 0,0 l/m 0,0 km/h (0 Bft) 0 min 0,0 km/h (0 Bft)
17.05.2010 01:24 16,8 C 7,6 C 0,0 UV-I 0,0 C 50 % 83 % 0 % 1018,9 hPa 0,0 l/m 0,0 km/h (0 Bft) 0 min 0,0 km/h (0 Bft)
17.05.2010 01:26 16,8 C 7,6 C 0,0 UV-I 0,0 C 50 % 83 % 0 % 1018,9 hPa 0,0 l/m 0,0 km/h (0 Bft) 0 min 0,0 km/h (0 Bft)
17.05.2010 01:28 16,8 C 7,6 C 0,0 UV-I 0,0 C 50 % 83 % 0 % 1018,9 hPa 0,0 l/m 0,0 km/h (0 Bft) 0 min 0,0 km/h (0 Bft)
17.05.2010 01:30 16,8 C 7,5 C 0,0 UV-I 0,0 C 50 % 83 % 0 % 1018,9 hPa 0,0 l/m 0,0 km/h (0 Bft) 0 min 0,0 km/h (0 Bft)
17.05.2010 01:32 16,8 C 7,6 C 0,0 UV-I 0,0 C 50 % 83 % 0 % 1019,0 hPa 0,0 l/m 0,0 km/h (0 Bft) 0 min 0,0 km/h (0 Bft)
17.05.2010 01:34 16,7 C 7,6 C 0,0 UV-I 0,0 C 50 % 83 % 0 % 1019,0 hPa 0,0 l/m 0,0 km/h (0 Bft) 0 min 0,0 km/h (0 Bft)
17.05.2010 01:38 16,7 C 7,6 C 0,0 UV-I 0,0 C 50 % 84 % 0 % 1019,0 hPa 0,0 l/m 0,0 km/h (0 Bft) 0 min 0,0 km/h (0 Bft)
17.05.2010 01:42 16,7 C 7,6 C 0,0 UV-I 0,0 C 50 % 84 % 0 % 1019,0 hPa 0,0 l/m 0,0 km/h (0 Bft) 0 min 0,0 km/h (0 Bft)
17.05.2010 01:44 16,7 C 7,6 C 0,0 UV-I 0,0 C 51 % 84 % 0 % 1019,0 hPa 0,0 l/m 0,0 km/h (0 Bft) 0 min 0,0 km/h (0 Bft)
17.05.2010 01:46 16,7 C 7,6 C 0,0 UV-I 0,0 C 51 % 84 % 0 % 1019,0 hPa 0,0 l/m 0,0 km/h (0 Bft) 0 min 0,0 km/h (0 Bft)
17.05.2010 01:48 16,7 C 7,7 C 0,0 UV-I 0,0 C 51 % 84 % 0 % 1019,0 hPa 0,0 l/m 0,0 km/h (0 Bft) 0 min 0,0 km/h (0 Bft)
17.05.2010 01:50 16,7 C 7,8 C 0,0 UV-I 0,0 C 51 % 84 % 0 % 1019,0 hPa 0,0 l/m 0,0 km/h (0 Bft) 0 min 0,0 km/h (0 Bft)
17.05.2010 01:52 16,7 C 7,9 C 0,0 UV-I 0,0 C 51 % 84 % 0 % 1019,1 hPa 0,0 l/m 0,0 km/h (0 Bft) 0 min 0,0 km/h (0 Bft)
17.05.2010 01:54 16,7 C 7,8 C 0,0 UV-I 0,0 C 51 % 84 % 0 % 1019,1 hPa 0,0 l/m 0,0 km/h (0 Bft) 0 min 0,0 km/h (0 Bft)
17.05.2010 01:56 16,7 C 7,9 C 0,0 UV-I 0,0 C 51 % 84 % 0 % 1019,1 hPa 0,0 l/m 0,0 km/h (0 Bft) 0 min 0,0 km/h (0 Bft)
17.05.2010 01:58 16,7 C 7,9 C 0,0 UV-I 0,0 C 51 % 84 % 0 % 1019,1 hPa 0,0 l/m 0,0 km/h (0 Bft) 0 min 0,0 km/h (0 Bft)
17.05.2010 02:00 16,7 C 8,0 C 0,0 UV-I 0,0 C 51 % 84 % 0 % 1019,1 hPa 0,0 l/m 0,0 km/h (0 Bft) 0 min 0,0 km/h (0 Bft)
17.05.2010 02:02 16,7 C 7,9 C 0,0 UV-I 0,0 C 51 % 84 % 0 % 1019,1 hPa 0,0 l/m 0,0 km/h (0 Bft) 0 min 0,0 km/h (0 Bft)
17.05.2010 02:04 16,7 C 8,0 C 0,0 UV-I 0,0 C 51 % 84 % 0 % 1019,1 hPa 0,0 l/m 0,0 km/h (0 Bft) 0 min 0,0 km/h (0 Bft)
17.05.2010 02:06 16,7 C 8,0 C 0,0 UV-I 0,0 C 51 % 84 % 0 % 1019,1 hPa 0,0 l/m 0,0 km/h (0 Bft) 0 min 0,0 km/h (0 Bft)
17.05.2010 02:10 16,7 C 8,1 C 0,0 UV-I 0,0 C 51 % 83 % 0 % 1019,1 hPa 0,0 l/m 0,0 km/h (0 Bft) 0 min 0,0 km/h (0 Bft)
17.05.2010 02:12 16,7 C 8,3 C 0,0 UV-I 0,0 C 51 % 84 % 0 % 1018,9 hPa 0,0 l/m 0,0 km/h (0 Bft) 0 min 0,0 km/h (0 Bft)
17.05.2010 02:14 16,7 C 8,3 C 0,0 UV-I 0,0 C 51 % 83 % 0 % 1018,9 hPa 0,0 l/m 0,0 km/h (0 Bft) 0 min 0,0 km/h (0 Bft)
17.05.2010 02:16 16,7 C 8,4 C 0,0 UV-I 0,0 C 51 % 83 % 0 % 1018,9 hPa 0,0 l/m 0,0 km/h (0 Bft) 0 min 0,0 km/h (0 Bft)
17.05.2010 02:18 16,6 C 8,4 C 0,0 UV-I 0,0 C 50 % 83 % 0 % 1018,9 hPa 0,0 l/m 0,0 km/h (0 Bft) 0 min 0,0 km/h (0 Bft)
17.05.2010 02:20 16,7 C 8,5 C 0,0 UV-I 0,0 C 51 % 82 % 0 % 1018,9 hPa 0,0 l/m 0,0 km/h (0 Bft) 0 min 0,0 km/h (0 Bft)
17.05.2010 02:22 16,7 C 8,6 C 0,0 UV-I 0,0 C 51 % 82 % 0 % 1018,9 hPa 0,0 l/m 0,0 km/h (0 Bft) 0 min 3,2 km/h (1 Bft)
17.05.2010 02:24 16,6 C 8,7 C 0,0 UV-I 0,0 C 50 % 82 % 0 % 1018,9 hPa 0,0 l/m 0,0 km/h (0 Bft) 0 min 0,0 km/h (0 Bft)
17.05.2010 02:26 16,7 C 8,8 C 0,0 UV-I 0,0 C 51 % 82 % 0 % 1018,9 hPa 0,0 l/m 0,0 km/h (0 Bft) 0 min 0,0 km/h (0 Bft)
17.05.2010 02:30 16,7 C 8,9 C 0,0 UV-I 0,0 C 51 % 81 % 0 % 1018,9 hPa 0,0 l/m 0,0 km/h (0 Bft) 0 min 0,0 km/h (0 Bft)
17.05.2010 02:32 16,7 C 9,1 C 0,0 UV-I 0,0 C 51 % 80 % 0 % 1019,3 hPa 0,0 l/m 0,0 km/h (0 Bft) 0 min 0,0 km/h (0 Bft)
17.05.2010 02:34 16,6 C 9,1 C 0,0 UV-I 0,0 C 50 % 80 % 0 % 1019,3 hPa 0,0 l/m 0,0 km/h (0 Bft) 0 min 0,0 km/h (0 Bft)
17.05.2010 02:36 16,7 C 9,1 C 0,0 UV-I 0,0 C 51 % 80 % 0 % 1019,3 hPa 0,0 l/m 0,0 km/h (0 Bft) 0 min 0,0 km/h (0 Bft)
17.05.2010 02:38 16,6 C 9,2 C 0,0 UV-I 0,0 C 50 % 80 % 0 % 1019,3 hPa 0,0 l/m 0,0 km/h (0 Bft) 0 min 0,0 km/h (0 Bft)
17.05.2010 02:40 16,6 C 9,2 C 0,0 UV-I 0,0 C 50 % 79 % 0 % 1019,3 hPa 0,0 l/m 0,0 km/h (0 Bft) 0 min 4,5 km/h (1 Bft)
17.05.2010 02:42 16,6 C 9,3 C 0,0 UV-I 0,0 C 50 % 79 % 0 % 1019,3 hPa 0,0 l/m 0,0 km/h (0 Bft) 0 min 0,0 km/h (0 Bft)
17.05.2010 02:44 16,6 C 9,2 C 0,0 UV-I 0,0 C 50 % 79 % 0 % 1019,3 hPa 0,0 l/m 0,0 km/h (0 Bft) 0 min 0,0 km/h (0 Bft)
17.05.2010 02:46 16,6 C 9,3 C 0,0 UV-I 0,0 C 50 % 79 % 0 % 1019,3 hPa 0,0 l/m 0,0 km/h (0 Bft) 0 min 0,0 km/h (0 Bft)
17.05.2010 02:48 16,6 C 9,3 C 0,0 UV-I 0,0 C 50 % 79 % 0 % 1019,3 hPa 0,0 l/m 0,0 km/h (0 Bft) 0 min 0,0 km/h (0 Bft)
17.05.2010 02:50 16,6 C 9,3 C 0,0 UV-I 0,0 C 50 % 78 % 0 % 1019,3 hPa 0,0 l/m 0,0 km/h (0 Bft) 0 min 3,5 km/h (1 Bft)
17.05.2010 02:52 16,6 C 9,4 C 0,0 UV-I 0,0 C 50 % 78 % 0 % 1019,4 hPa 0,0 l/m 0,0 km/h (0 Bft) 0 min 0,0 km/h (0 Bft)
17.05.2010 02:54 16,6 C 9,4 C 0,0 UV-I 0,0 C 50 % 78 % 0 % 1019,4 hPa 0,0 l/m 0,0 km/h (0 Bft) 0 min 0,0 km/h (0 Bft)
17.05.2010 02:56 16,6 C 9,4 C 0,0 UV-I 0,0 C 50 % 78 % 0 % 1019,4 hPa 0,0 l/m 0,0 km/h (0 Bft) 0 min 0,0 km/h (0 Bft)
17.05.2010 02:58 16,6 C 9,4 C 0,0 UV-I 0,0 C 50 % 78 % 0 % 1019,4 hPa 0,0 l/m 0,4 km/h (0 Bft) 0 min 4,2 km/h (1 Bft)
17.05.2010 03:00 16,6 C 9,5 C 0,0 UV-I 0,0 C 50 % 78 % 0 % 1019,4 hPa 0,0 l/m 0,4 km/h (0 Bft) 0 min 0,0 km/h (0 Bft)
17.05.2010 03:02 16,6 C 9,5 C 0,0 UV-I 0,0 C 50 % 78 % 0 % 1019,4 hPa 0,0 l/m 0,4 km/h (0 Bft) 0 min 0,0 km/h (0 Bft)
17.05.2010 03:04 16,6 C 9,5 C 0,0 UV-I 0,0 C 50 % 78 % 0 % 1019,4 hPa 0,0 l/m 0,4 km/h (0 Bft) 0 min 0,0 km/h (0 Bft)
17.05.2010 03:06 16,6 C 9,5 C 0,0 UV-I 0,0 C 50 % 78 % 0 % 1019,4 hPa 0,0 l/m 0,4 km/h (0 Bft) 0 min 0,0 km/h (0 Bft)
17.05.2010 03:08 16,6 C 9,4 C 0,0 UV-I 0,0 C 50 % 78 % 0 % 1019,4 hPa 0,0 l/m 0,0 km/h (0 Bft) 0 min 0,0 km/h (0 Bft)
17.05.2010 03:12 16,6 C 9,4 C 0,0 UV-I 0,0 C 50 % 78 % 0 % 1018,9 hPa 0,0 l/m 0,4 km/h (0 Bft) 0 min 5,8 km/h (2 Bft)
17.05.2010 03:16 16,6 C 9,4 C 0,0 UV-I 0,0 C 50 % 78 % 0 % 1018,9 hPa 0,0 l/m 0,4 km/h (0 Bft) 0 min 0,0 km/h (0 Bft)
17.05.2010 03:18 16,6 C 9,5 C 0,0 UV-I 0,0 C 50 % 78 % 0 % 1018,9 hPa 0,0 l/m 0,4 km/h (0 Bft) 0 min 0,0 km/h (0 Bft)
17.05.2010 03:20 16,6 C 9,4 C 0,0 UV-I 0,0 C 50 % 78 % 0 % 1018,9 hPa 0,0 l/m 0,8 km/h (0 Bft) 0 min 3,2 km/h (1 Bft)
17.05.2010 03:22 16,6 C 9,3 C 0,0 UV-I 0,0 C 50 % 78 % 0 % 1018,9 hPa 0,0 l/m 0,4 km/h (0 Bft) 0 min 0,0 km/h (0 Bft)
17.05.2010 03:24 16,6 C 9,4 C 0,0 UV-I 0,0 C 50 % 78 % 0 % 1018,9 hPa 0,0 l/m 0,4 km/h (0 Bft) 0 min 0,0 km/h (0 Bft)
17.05.2010 03:26 16,6 C 9,3 C 0,0 UV-I 0,0 C 50 % 79 % 0 % 1018,9 hPa 0,0 l/m 0,4 km/h (0 Bft) 0 min 0,0 km/h (0 Bft)
17.05.2010 03:28 16,6 C 9,3 C 0,0 UV-I 0,0 C 50 % 79 % 0 % 1018,9 hPa 0,0 l/m 0,4 km/h (0 Bft) 0 min 0,0 km/h (0 Bft)
17.05.2010 03:30 16,6 C 9,3 C 0,0 UV-I 0,0 C 50 % 79 % 0 % 1018,9 hPa 0,0 l/m 0,4 km/h (0 Bft) 0 min 0,0 km/h (0 Bft)
17.05.2010 03:32 16,6 C 9,3 C 0,0 UV-I 0,0 C 50 % 79 % 0 % 1019,2 hPa 0,0 l/m 0,4 km/h (0 Bft) 0 min 0,0 km/h (0 Bft)
17.05.2010 03:34 16,6 C 9,3 C 0,0 UV-I 0,0 C 50 % 79 % 0 % 1019,2 hPa 0,0 l/m 0,4 km/h (0 Bft) 0 min 0,0 km/h (0 Bft)
17.05.2010 03:36 16,6 C 9,3 C 0,0 UV-I 0,0 C 50 % 79 % 0 % 1019,2 hPa 0,0 l/m 0,4 km/h (0 Bft) 0 min 0,0 km/h (0 Bft)
17.05.2010 03:38 16,5 C 9,2 C 0,0 UV-I 0,0 C 51 % 79 % 0 % 1019,2 hPa 0,0 l/m 0,0 km/h (0 Bft) 0 min 0,0 km/h (0 Bft)
17.05.2010 03:40 16,6 C 9,2 C 0,0 UV-I 0,0 C 51 % 79 % 0 % 1019,2 hPa 0,0 l/m 0,0 km/h (0 Bft) 0 min 0,0 km/h (0 Bft)
17.05.2010 03:42 16,6 C 9,2 C 0,0 UV-I 0,0 C 51 % 79 % 0 % 1019,2 hPa 0,0 l/m 0,0 km/h (0 Bft) 0 min 0,0 km/h (0 Bft)
17.05.2010 03:44 16,5 C 9,2 C 0,0 UV-I 0,0 C 51 % 79 % 0 % 1019,2 hPa 0,0 l/m 0,0 km/h (0 Bft) 0 min 4,8 km/h (1 Bft)
17.05.2010 03:46 16,6 C 9,2 C 0,0 UV-I 0,0 C 51 % 80 % 0 % 1019,2 hPa 0,0 l/m 0,4 km/h (0 Bft) 0 min 0,0 km/h (0 Bft)
17.05.2010 03:48 16,6 C 9,2 C 0,0 UV-I 0,0 C 51 % 80 % 0 % 1019,2 hPa 0,0 l/m 0,4 km/h (0 Bft) 0 min 4,5 km/h (1 Bft)
17.05.2010 03:50 16,6 C 9,2 C 0,0 UV-I 0,0 C 51 % 80 % 0 % 1019,2 hPa 0,0 l/m 0,4 km/h (0 Bft) 0 min 0,0 km/h (0 Bft)
17.05.2010 03:52 16,6 C 9,2 C 0,0 UV-I 0,0 C 51 % 80 % 0 % 1019,2 hPa 0,0 l/m 0,4 km/h (0 Bft) 0 min 3,2 km/h (1 Bft)
17.05.2010 03:56 16,5 C 9,2 C 0,0 UV-I 0,0 C 51 % 80 % 0 % 1019,2 hPa 0,0 l/m 0,4 km/h (0 Bft) 0 min 0,0 km/h (0 Bft)
17.05.2010 03:58 16,5 C 9,2 C 0,0 UV-I 0,0 C 51 % 80 % 0 % 1019,2 hPa 0,0 l/m 0,4 km/h (0 Bft) 0 min 0,0 km/h (0 Bft)
17.05.2010 04:00 16,5 C 9,3 C 0,0 UV-I 0,0 C 51 % 80 % 0 % 1019,2 hPa 0,0 l/m 0,4 km/h (0 Bft) 0 min 0,0 km/h (0 Bft)
17.05.2010 04:02 16,5 C 9,2 C 0,0 UV-I 0,0 C 51 % 80 % 0 % 1019,2 hPa 0,0 l/m 0,4 km/h (0 Bft) 0 min 0,0 km/h (0 Bft)
17.05.2010 04:04 16,5 C 9,3 C 0,0 UV-I 0,0 C 51 % 80 % 0 % 1019,2 hPa 0,0 l/m 0,4 km/h (0 Bft) 0 min 5,5 km/h (1 Bft)
17.05.2010 04:06 16,5 C 9,2 C 0,0 UV-I 0,0 C 51 % 80 % 0 % 1019,2 hPa 0,0 l/m 0,4 km/h (0 Bft) 0 min 0,0 km/h (0 Bft)
17.05.2010 04:08 16,5 C 9,3 C 0,0 UV-I 0,0 C 51 % 80 % 0 % 1019,2 hPa 0,0 l/m 0,4 km/h (0 Bft) 0 min 0,0 km/h (0 Bft)
17.05.2010 04:10 16,5 C 9,3 C 0,0 UV-I 0,0 C 51 % 80 % 0 % 1019,2 hPa 0,0 l/m 0,4 km/h (0 Bft) 0 min 0,0 km/h (0 Bft)
17.05.2010 04:13 16,5 C 9,3 C 0,0 UV-I 0,0 C 51 % 80 % 0 % 1019,2 hPa 0,0 l/m 0,8 km/h (0 Bft) 0 min 0,0 km/h (0 Bft)
17.05.2010 04:18 16,5 C 9,3 C 0,0 UV-I 0,0 C 51 % 80 % 0 % 1019,2 hPa 0,0 l/m 0,4 km/h (0 Bft) 0 min 0,0 km/h (0 Bft)
17.05.2010 04:19 16,5 C 9,3 C 0,0 UV-I 0,0 C 51 % 80 % 0 % 1019,2 hPa 0,0 l/m 0,4 km/h (0 Bft) 0 min 0,0 km/h (0 Bft)
17.05.2010 04:20 16,5 C 9,3 C 0,0 UV-I 0,0 C 51 % 80 % 0 % 1019,2 hPa 0,0 l/m 0,4 km/h (0 Bft) 0 min 0,0 km/h (0 Bft)
17.05.2010 04:22 16,5 C 9,3 C 0,0 UV-I 0,0 C 51 % 80 % 0 % 1019,2 hPa 0,0 l/m 0,4 km/h (0 Bft) 0 min 0,0 km/h (0 Bft)
17.05.2010 04:24 16,5 C 9,3 C 0,0 UV-I 0,0 C 51 % 80 % 0 % 1019,2 hPa 0,0 l/m 0,0 km/h (0 Bft) 0 min 0,0 km/h (0 Bft)
17.05.2010 04:26 16,5 C 9,3 C 0,0 UV-I 0,0 C 51 % 80 % 0 % 1019,2 hPa 0,0 l/m 0,4 km/h (0 Bft) 0 min 3,9 km/h (1 Bft)
17.05.2010 04:28 16,5 C 9,3 C 0,0 UV-I 0,0 C 51 % 80 % 0 % 1019,2 hPa 0,0 l/m 0,4 km/h (0 Bft) 0 min 0,0 km/h (0 Bft)
17.05.2010 04:30 16,5 C 9,3 C 0,0 UV-I 0,0 C 51 % 80 % 0 % 1019,2 hPa 0,0 l/m 0,4 km/h (0 Bft) 0 min 0,0 km/h (0 Bft)
17.05.2010 04:32 16,5 C 9,3 C 0,0 UV-I 0,0 C 51 % 80 % 0 % 1019,2 hPa 0,0 l/m 0,4 km/h (0 Bft) 0 min 0,0 km/h (0 Bft)
17.05.2010 04:34 16,5 C 9,3 C 0,0 UV-I 0,0 C 51 % 81 % 0 % 1019,2 hPa 0,0 l/m 0,8 km/h (0 Bft) 0 min 7,1 km/h (2 Bft)
17.05.2010 04:36 16,5 C 9,3 C 0,0 UV-I 0,0 C 51 % 81 % 0 % 1019,2 hPa 0,0 l/m 0,8 km/h (0 Bft) 0 min 3,5 km/h (1 Bft)
17.05.2010 04:38 16,5 C 9,3 C 0,0 UV-I 0,0 C 51 % 81 % 0 % 1019,2 hPa 0,0 l/m 1,2 km/h (1 Bft) 0 min 0,0 km/h (0 Bft)
17.05.2010 04:40 16,5 C 9,3 C 0,0 UV-I 0,0 C 51 % 81 % 0 % 1019,2 hPa 0,0 l/m 1,6 km/h (1 Bft) 0 min 7,1 km/h (2 Bft)
17.05.2010 04:42 16,5 C 9,3 C 0,0 UV-I 0,0 C 51 % 81 % 0 % 1019,2 hPa 0,0 l/m 2,0 km/h (1 Bft) 0 min 0,0 km/h (0 Bft)
17.05.2010 04:44 16,4 C 9,3 C 0,0 UV-I 0,0 C 51 % 81 % 0 % 1019,2 hPa 0,0 l/m 2,0 km/h (1 Bft) 0 min 0,0 km/h (0 Bft)
17.05.2010 04:46 16,5 C 9,3 C 0,0 UV-I 0,0 C 51 % 81 % 0 % 1019,2 hPa 0,0 l/m 1,6 km/h (1 Bft) 0 min 0,0 km/h (0 Bft)
17.05.2010 04:48 16,4 C 9,3 C 0,0 UV-I 0,0 C 51 % 81 % 0 % 1019,2 hPa 0,0 l/m 0,8 km/h (0 Bft) 0 min 0,0 km/h (0 Bft)
17.05.2010 04:50 16,5 C 9,3 C 0,0 UV-I 0,0 C 51 % 81 % 0 % 1019,2 hPa 0,0 l/m 0,4 km/h (0 Bft) 0 min 0,0 km/h (0 Bft)
17.05.2010 04:52 16,4 C 9,3 C 0,0 UV-I 0,0 C 51 % 81 % 0 % 1019,2 hPa 0,0 l/m 0,4 km/h (0 Bft) 0 min 0,0 km/h (0 Bft)
17.05.2010 04:54 16,4 C 9,3 C 0,0 UV-I 0,0 C 51 % 81 % 0 % 1019,2 hPa 0,0 l/m 0,4 km/h (0 Bft) 0 min 0,0 km/h (0 Bft)
17.05.2010 04:56 16,4 C 9,3 C 0,0 UV-I 0,0 C 51 % 81 % 0 % 1019,2 hPa 0,0 l/m 0,4 km/h (0 Bft) 0 min 4,2 km/h (1 Bft)
17.05.2010 04:58 16,4 C 9,2 C 0,0 UV-I 0,0 C 51 % 81 % 0 % 1019,2 hPa 0,0 l/m 0,8 km/h (0 Bft) 0 min 0,0 km/h (0 Bft)
17.05.2010 05:00 16,4 C 9,2 C 0,0 UV-I 0,0 C 51 % 81 % 0 % 1019,2 hPa 0,0 l/m 1,2 km/h (1 Bft) 0 min 8,7 km/h (2 Bft)
17.05.2010 05:02 16,4 C 9,2 C 0,0 UV-I 0,0 C 51 % 81 % 0 % 1019,2 hPa 0,0 l/m 2,0 km/h (1 Bft) 0 min 4,2 km/h (1 Bft)
17.05.2010 05:04 16,4 C 9,2 C 0,0 UV-I 0,0 C 51 % 81 % 0 % 1019,2 hPa 0,0 l/m 1,6 km/h (1 Bft) 0 min 0,0 km/h (0 Bft)
17.05.2010 05:06 16,4 C 9,2 C 0,0 UV-I 0,0 C 51 % 81 % 0 % 1019,2 hPa 0,0 l/m 2,0 km/h (1 Bft) 0 min 6,4 km/h (2 Bft)
17.05.2010 05:08 16,4 C 9,2 C 0,0 UV-I 0,0 C 51 % 81 % 0 % 1019,2 hPa 0,0 l/m 1,6 km/h (1 Bft) 0 min 0,0 km/h (0 Bft)
17.05.2010 05:10 16,4 C 9,2 C 0,0 UV-I 0,0 C 51 % 81 % 0 % 1019,2 hPa 0,0 l/m 1,2 km/h (1 Bft) 0 min 0,0 km/h (0 Bft)
17.05.2010 05:12 16,4 C 9,2 C 0,0 UV-I 0,0 C 51 % 81 % 0 % 1019,2 hPa 0,0 l/m 0,8 km/h (0 Bft) 0 min 5,1 km/h (1 Bft)
17.05.2010 05:14 16,4 C 9,2 C 0,0 UV-I 0,0 C 51 % 81 % 0 % 1019,2 hPa 0,0 l/m 0,8 km/h (0 Bft) 0 min 0,0 km/h (0 Bft)
17.05.2010 05:16 16,4 C 9,2 C 0,0 UV-I 0,0 C 51 % 81 % 0 % 1019,2 hPa 0,0 l/m 0,8 km/h (0 Bft) 0 min 0,0 km/h (0 Bft)
17.05.2010 05:18 16,4 C 9,2 C 0,0 UV-I 0,0 C 51 % 81 % 0 % 1019,2 hPa 0,0 l/m 0,8 km/h (0 Bft) 0 min 5,1 km/h (1 Bft)
17.05.2010 05:20 16,4 C 9,2 C 0,0 UV-I 0,0 C 51 % 82 % 0 % 1019,2 hPa 0,0 l/m 0,8 km/h (0 Bft) 0 min 3,5 km/h (1 Bft)
17.05.2010 05:22 16,4 C 9,2 C 0,0 UV-I 0,0 C 51 % 82 % 0 % 1019,2 hPa 0,0 l/m 1,2 km/h (1 Bft) 0 min 0,0 km/h (0 Bft)
17.05.2010 05:24 16,4 C 9,2 C 0,0 UV-I 0,0 C 51 % 82 % 0 % 1019,2 hPa 0,0 l/m 1,2 km/h (1 Bft) 0 min 3,5 km/h (1 Bft)
17.05.2010 05:26 16,4 C 9,2 C 0,0 UV-I 0,0 C 51 % 82 % 0 % 1019,2 hPa 0,0 l/m 1,6 km/h (1 Bft) 0 min 5,8 km/h (2 Bft)
17.05.2010 05:28 16,4 C 9,2 C 0,0 UV-I 0,0 C 51 % 82 % 0 % 1019,2 hPa 0,0 l/m 2,0 km/h (1 Bft) 0 min 4,5 km/h (1 Bft)
17.05.2010 05:30 16,4 C 9,2 C 0,0 UV-I 0,0 C 51 % 82 % 0 % 1019,2 hPa 0,0 l/m 2,4 km/h (1 Bft) 0 min 3,2 km/h (1 Bft)
17.05.2010 05:32 16,4 C 9,3 C 0,0 UV-I 0,0 C 51 % 82 % 0 % 1019,1 hPa 0,0 l/m 2,0 km/h (1 Bft) 0 min 0,0 km/h (0 Bft)
17.05.2010 05:34 16,4 C 9,3 C 0,0 UV-I 0,0 C 51 % 82 % 0 % 1019,1 hPa 0,0 l/m 1,6 km/h (1 Bft) 0 min 0,0 km/h (0 Bft)
17.05.2010 05:36 16,4 C 9,3 C 0,0 UV-I 0,0 C 51 % 82 % 0 % 1019,1 hPa 0,0 l/m 1,6 km/h (1 Bft) 0 min 0,0 km/h (0 Bft)
17.05.2010 05:38 16,4 C 9,3 C 0,0 UV-I 0,0 C 51 % 82 % 0 % 1019,1 hPa 0,0 l/m 1,2 km/h (1 Bft) 0 min 5,1 km/h (1 Bft)
17.05.2010 05:40 16,4 C 9,3 C 0,0 UV-I 0,0 C 51 % 82 % 0 % 1019,1 hPa 0,0 l/m 0,8 km/h (0 Bft) 0 min 0,0 km/h (0 Bft)
17.05.2010 05:42 16,4 C 9,3 C 0,0 UV-I 0,0 C 51 % 82 % 0 % 1019,1 hPa 0,0 l/m 1,6 km/h (1 Bft) 0 min 6,1 km/h (2 Bft)
17.05.2010 05:44 16,4 C 9,3 C 0,0 UV-I 0,0 C 52 % 82 % 0 % 1019,1 hPa 0,0 l/m 1,6 km/h (1 Bft) 0 min 5,5 km/h (1 Bft)
17.05.2010 05:48 16,4 C 9,3 C 0,0 UV-I 0,0 C 52 % 82 % 0 % 1019,1 hPa 0,0 l/m 1,6 km/h (1 Bft) 0 min 0,0 km/h (0 Bft)
17.05.2010 05:50 16,4 C 9,4 C 0,0 UV-I 0,0 C 52 % 82 % 0 % 1019,1 hPa 0,0 l/m 0,8 km/h (0 Bft) 0 min 0,0 km/h (0 Bft)
17.05.2010 05:52 16,4 C 9,4 C 0,0 UV-I 0,0 C 52 % 82 % 0 % 1019,3 hPa 0,0 l/m 0,8 km/h (0 Bft) 0 min 0,0 km/h (0 Bft)
17.05.2010 05:54 16,4 C 9,5 C 0,0 UV-I 0,0 C 52 % 82 % 0 % 1019,3 hPa 0,0 l/m 0,4 km/h (0 Bft) 0 min 0,0 km/h (0 Bft)
17.05.2010 05:56 16,4 C 9,4 C 0,0 UV-I 0,0 C 52 % 82 % 0 % 1019,3 hPa 0,0 l/m 0,4 km/h (0 Bft) 0 min 0,0 km/h (0 Bft)
17.05.2010 05:58 16,4 C 9,5 C 0,0 UV-I 0,0 C 52 % 82 % 0 % 1019,3 hPa 0,0 l/m 0,4 km/h (0 Bft) 0 min 3,2 km/h (1 Bft)
17.05.2010 06:02 16,2 C 9,5 C 0,0 UV-I 0,0 C 52 % 82 % 0 % 1019,3 hPa 0,0 l/m 0,4 km/h (0 Bft) 0 min 0,0 km/h (0 Bft)
17.05.2010 06:04 16,2 C 9,5 C 0,0 UV-I 0,0 C 52 % 82 % 0 % 1019,3 hPa 0,0 l/m 0,8 km/h (0 Bft) 0 min 4,8 km/h (1 Bft)
17.05.2010 06:06 16,2 C 9,5 C 0,0 UV-I 0,0 C 52 % 82 % 0 % 1019,3 hPa 0,0 l/m 0,8 km/h (0 Bft) 0 min 4,8 km/h (1 Bft)
17.05.2010 06:08 16,2 C 9,5 C 0,0 UV-I 0,0 C 52 % 82 % 0 % 1019,3 hPa 0,0 l/m 0,8 km/h (0 Bft) 0 min 4,8 km/h (1 Bft)
17.05.2010 06:10 16,3 C 9,5 C 0,0 UV-I 0,0 C 52 % 82 % 0 % 1019,3 hPa 0,0 l/m 0,8 km/h (0 Bft) 0 min 4,8 km/h (1 Bft)
17.05.2010 06:12 16,3 C 9,5 C 0,0 UV-I 0,0 C 52 % 82 % 0 % 1019,5 hPa 0,0 l/m 0,8 km/h (0 Bft) 0 min 4,8 km/h (1 Bft)
17.05.2010 06:14 16,3 C 9,5 C 0,0 UV-I 0,0 C 52 % 82 % 0 % 1019,5 hPa 0,0 l/m 0,0 km/h (0 Bft) 0 min 0,0 km/h (0 Bft)
17.05.2010 06:16 16,3 C 9,5 C 0,0 UV-I 0,0 C 52 % 82 % 0 % 1019,5 hPa 0,0 l/m 0,0 km/h (0 Bft) 0 min 0,0 km/h (0 Bft)
17.05.2010 06:18 16,3 C 9,5 C 0,0 UV-I 0,0 C 52 % 82 % 0 % 1019,5 hPa 0,0 l/m 0,0 km/h (0 Bft) 0 min 0,0 km/h (0 Bft)
17.05.2010 06:20 16,3 C 9,5 C 0,0 UV-I 0,0 C 52 % 82 % 0 % 1019,5 hPa 0,0 l/m 0,4 km/h (0 Bft) 0 min 0,0 km/h (0 Bft)
17.05.2010 06:22 16,3 C 9,6 C 0,0 UV-I 0,0 C 52 % 82 % 0 % 1019,5 hPa 0,0 l/m 0,8 km/h (0 Bft) 0 min 6,8 km/h (2 Bft)
17.05.2010 06:23 16,3 C 9,5 C 0,0 UV-I 0,0 C 52 % 82 % 0 % 1019,5 hPa 0,0 l/m 1,2 km/h (1 Bft) 0 min 0,0 km/h (0 Bft)
17.05.2010 06:28 16,3 C 9,7 C 0,0 UV-I 0,0 C 52 % 82 % 0 % 1019,5 hPa 0,0 l/m 1,2 km/h (1 Bft) 0 min 3,5 km/h (1 Bft)
17.05.2010 06:30 16,3 C 9,5 C 0,0 UV-I 0,0 C 52 % 82 % 0 % 1019,5 hPa 0,0 l/m 1,2 km/h (1 Bft) 0 min 3,5 km/h (1 Bft)
17.05.2010 06:32 16,3 C 9,5 C 0,0 UV-I 0,0 C 52 % 82 % 0 % 1019,3 hPa 0,0 l/m 1,2 km/h (1 Bft) 0 min 0,0 km/h (0 Bft)
17.05.2010 06:34 16,3 C 9,6 C 0,0 UV-I 0,0 C 52 % 82 % 0 % 1019,3 hPa 0,0 l/m 0,4 km/h (0 Bft) 0 min 0,0 km/h (0 Bft)
17.05.2010 06:36 16,3 C 9,7 C 0,0 UV-I 0,0 C 52 % 82 % 0 % 1019,3 hPa 0,0 l/m 0,4 km/h (0 Bft) 0 min 0,0 km/h (0 Bft)
17.05.2010 06:38 16,3 C 9,6 C 0,0 UV-I 0,0 C 52 % 82 % 0 % 1019,3 hPa 0,0 l/m 0,8 km/h (0 Bft) 0 min 0,0 km/h (0 Bft)
17.05.2010 06:40 16,3 C 9,7 C 0,0 UV-I 0,0 C 52 % 82 % 0 % 1019,3 hPa 0,0 l/m 0,8 km/h (0 Bft) 0 min 0,0 km/h (0 Bft)
17.05.2010 06:42 16,2 C 9,6 C 0,0 UV-I 0,0 C 52 % 82 % 0 % 1019,3 hPa 0,0 l/m 0,4 km/h (0 Bft) 0 min 0,0 km/h (0 Bft)
17.05.2010 06:44 16,2 C 9,6 C 0,0 UV-I 0,0 C 52 % 82 % 0 % 1019,3 hPa 0,0 l/m 0,4 km/h (0 Bft) 0 min 4,8 km/h (1 Bft)
17.05.2010 06:46 16,2 C 9,6 C 0,0 UV-I 0,0 C 52 % 82 % 0 % 1019,3 hPa 0,0 l/m 0,4 km/h (0 Bft) 0 min 0,0 km/h (0 Bft)
17.05.2010 06:48 16,4 C 9,6 C 0,0 UV-I 0,0 C 52 % 82 % 0 % 1019,3 hPa 0,0 l/m 0,4 km/h (0 Bft) 0 min 0,0 km/h (0 Bft)
17.05.2010 06:50 16,2 C 9,7 C 0,0 UV-I 0,0 C 52 % 82 % 0 % 1019,3 hPa 0,0 l/m 0,4 km/h (0 Bft) 0 min 0,0 km/h (0 Bft)
17.05.2010 06:52 16,4 C 9,7 C 0,0 UV-I 0,0 C 52 % 82 % 0 % 1019,6 hPa 0,0 l/m 0,4 km/h (0 Bft) 0 min 3,2 km/h (1 Bft)
17.05.2010 06:54 16,4 C 9,7 C 0,0 UV-I 0,0 C 52 % 82 % 0 % 1019,6 hPa 0,0 l/m 0,4 km/h (0 Bft) 0 min 0,0 km/h (0 Bft)
17.05.2010 06:56 16,4 C 9,7 C 0,0 UV-I 0,0 C 52 % 82 % 0 % 1019,6 hPa 0,0 l/m 0,4 km/h (0 Bft) 0 min 0,0 km/h (0 Bft)
17.05.2010 06:58 16,4 C 9,7 C 0,0 UV-I 0,0 C 52 % 82 % 0 % 1019,6 hPa 0,0 l/m 0,4 km/h (0 Bft) 0 min 0,0 km/h (0 Bft)
17.05.2010 07:00 16,4 C 9,7 C 0,0 UV-I 0,0 C 52 % 82 % 0 % 1019,6 hPa 0,0 l/m 0,4 km/h (0 Bft) 0 min 3,2 km/h (1 Bft)
17.05.2010 07:02 16,4 C 9,8 C 0,1 UV-I 0,0 C 52 % 82 % 0 % 1019,6 hPa 0,0 l/m 0,4 km/h (0 Bft) 0 min 0,0 km/h (0 Bft)
17.05.2010 07:04 16,4 C 9,9 C 0,1 UV-I 0,0 C 52 % 82 % 0 % 1019,6 hPa 0,0 l/m 0,4 km/h (0 Bft) 0 min 4,8 km/h (1 Bft)
17.05.2010 07:06 16,4 C 9,9 C 0,0 UV-I 0,0 C 52 % 82 % 0 % 1019,6 hPa 0,0 l/m 1,2 km/h (1 Bft) 0 min 6,1 km/h (2 Bft)
17.05.2010 07:08 16,4 C 9,8 C 0,0 UV-I 0,0 C 52 % 82 % 0 % 1019,6 hPa 0,0 l/m 1,6 km/h (1 Bft) 0 min 5,8 km/h (2 Bft)
17.05.2010 07:10 16,4 C 9,9 C 0,0 UV-I 0,0 C 52 % 82 % 0 % 1019,6 hPa 0,0 l/m 1,2 km/h (1 Bft) 0 min 0,0 km/h (0 Bft)
17.05.2010 07:12 16,4 C 9,9 C 0,0 UV-I 0,0 C 52 % 82 % 0 % 1019,8 hPa 0,0 l/m 1,2 km/h (1 Bft) 0 min 0,0 km/h (0 Bft)
17.05.2010 07:14 16,4 C 9,9 C 0,0 UV-I 0,0 C 52 % 82 % 0 % 1019,8 hPa 0,0 l/m 1,6 km/h (1 Bft) 0 min 0,0 km/h (0 Bft)
17.05.2010 07:16 16,4 C 9,9 C 0,1 UV-I 0,0 C 52 % 82 % 0 % 1019,8 hPa 0,0 l/m 0,8 km/h (0 Bft) 0 min 0,0 km/h (0 Bft)
17.05.2010 07:18 16,4 C 10,0 C 0,1 UV-I 0,0 C 52 % 82 % 0 % 1019,8 hPa 0,0 l/m 0,4 km/h (0 Bft) 0 min 0,0 km/h (0 Bft)
17.05.2010 07:20 16,4 C 10,1 C 0,1 UV-I 0,0 C 52 % 82 % 0 % 1019,8 hPa 0,0 l/m 0,4 km/h (0 Bft) 0 min 0,0 km/h (0 Bft)
17.05.2010 07:22 16,4 C 10,0 C 0,0 UV-I 0,0 C 52 % 82 % 0 % 1019,8 hPa 0,0 l/m 0,4 km/h (0 Bft) 0 min 4,2 km/h (1 Bft)
17.05.2010 07:24 16,4 C 10,1 C 0,0 UV-I 0,0 C 52 % 82 % 0 % 1019,8 hPa 0,0 l/m 0,8 km/h (0 Bft) 0 min 4,2 km/h (1 Bft)
17.05.2010 07:26 16,4 C 10,0 C 0,0 UV-I 0,0 C 52 % 82 % 0 % 1019,8 hPa 0,0 l/m 0,8 km/h (0 Bft) 0 min 0,0 km/h (0 Bft)
17.05.2010 07:28 16,4 C 10,0 C 0,0 UV-I 0,0 C 52 % 82 % 0 % 1019,8 hPa 0,0 l/m 0,8 km/h (0 Bft) 0 min 3,5 km/h (1 Bft)
17.05.2010 07:30 16,4 C 10,0 C 0,0 UV-I 0,0 C 52 % 82 % 0 % 1019,8 hPa 0,0 l/m 1,2 km/h (1 Bft) 0 min 4,5 km/h (1 Bft)
17.05.2010 07:32 16,4 C 10,0 C 0,0 UV-I 0,0 C 52 % 82 % 0 % 1019,9 hPa 0,0 l/m 1,2 km/h (1 Bft) 0 min 0,0 km/h (0 Bft)
17.05.2010 07:34 16,4 C 10,1 C 0,0 UV-I 0,0 C 52 % 82 % 0 % 1019,9 hPa 0,0 l/m 1,2 km/h (1 Bft) 0 min 0,0 km/h (0 Bft)
17.05.2010 07:36 16,4 C 10,1 C 0,3 UV-I 0,0 C 52 % 82 % 0 % 1019,9 hPa 0,0 l/m 0,8 km/h (0 Bft) 0 min 0,0 km/h (0 Bft)
17.05.2010 07:38 16,4 C 10,1 C 0,3 UV-I 0,1 C 52 % 82 % 3 % 1019,9 hPa 0,0 l/m 0,8 km/h (0 Bft) 0 min 3,9 km/h (1 Bft)
17.05.2010 07:40 16,4 C 10,3 C 0,3 UV-I 0,0 C 52 % 82 % 0 % 1019,9 hPa 0,0 l/m 0,8 km/h (0 Bft) 0 min 0,0 km/h (0 Bft)
17.05.2010 07:42 16,4 C 10,2 C 0,8 UV-I 0,2 C 52 % 82 % 6 % 1019,9 hPa 0,0 l/m 0,4 km/h (0 Bft) 0 min 0,0 km/h (0 Bft)
17.05.2010 07:44 16,4 C 10,3 C 0,8 UV-I 0,1 C 52 % 82 % 3 % 1019,9 hPa 0,0 l/m 0,4 km/h (0 Bft) 0 min 0,0 km/h (0 Bft)
17.05.2010 07:46 16,4 C 10,3 C 1,4 UV-I 0,2 C 52 % 82 % 6 % 1019,9 hPa 0,0 l/m 0,4 km/h (0 Bft) 0 min 3,5 km/h (1 Bft)
17.05.2010 07:48 16,4 C 10,3 C 1,4 UV-I 0,4 C 52 % 82 % 11 % 1019,9 hPa 0,0 l/m 0,4 km/h (0 Bft) 0 min 0,0 km/h (0 Bft)
17.05.2010 07:50 16,4 C 10,4 C 1,4 UV-I 0,4 C 52 % 82 % 11 % 1019,9 hPa 0,0 l/m 0,4 km/h (0 Bft) 0 min 0,0 km/h (0 Bft)
17.05.2010 07:52 16,4 C 10,4 C 1,8 UV-I 0,6 C 52 % 82 % 17 % 1020,3 hPa 0,0 l/m 0,4 km/h (0 Bft) 0 min 0,0 km/h (0 Bft)
17.05.2010 07:54 16,4 C 10,5 C 1,8 UV-I 0,8 C 52 % 82 % 23 % 1020,3 hPa 0,0 l/m 0,4 km/h (0 Bft) 0 min 0,0 km/h (0 Bft)
17.05.2010 07:56 16,4 C 10,5 C 2,2 UV-I 0,9 C 52 % 82 % 26 % 1020,3 hPa 0,0 l/m 0,4 km/h (0 Bft) 0 min 0,0 km/h (0 Bft)
17.05.2010 07:58 16,4 C 10,7 C 2,2 UV-I 1,1 C 52 % 82 % 31 % 1020,3 hPa 0,0 l/m 0,4 km/h (0 Bft) 0 min 0,0 km/h (0 Bft)
17.05.2010 08:00 16,5 C 10,8 C 2,2 UV-I 1,2 C 52 % 82 % 34 % 1020,3 hPa 0,0 l/m 0,4 km/h (0 Bft) 0 min 0,0 km/h (0 Bft)
17.05.2010 08:02 16,5 C 10,8 C 2,0 UV-I 1,4 C 52 % 83 % 40 % 1020,3 hPa 0,0 l/m 0,8 km/h (0 Bft) 0 min 4,2 km/h (1 Bft)
17.05.2010 08:04 16,5 C 10,9 C 2,0 UV-I 1,5 C 52 % 82 % 43 % 1020,3 hPa 0,0 l/m 2,0 km/h (1 Bft) 0 min 7,4 km/h (2 Bft)
17.05.2010 08:06 16,5 C 11,0 C 1,8 UV-I 1,5 C 52 % 82 % 43 % 1020,3 hPa 0,0 l/m 2,4 km/h (1 Bft) 0 min 5,8 km/h (2 Bft)
17.05.2010 08:08 16,5 C 11,1 C 1,8 UV-I 1,4 C 52 % 82 % 40 % 1020,3 hPa 0,0 l/m 2,4 km/h (1 Bft) 0 min 0,0 km/h (0 Bft)
17.05.2010 08:10 16,5 C 11,1 C 1,8 UV-I 1,6 C 52 % 82 % 46 % 1020,3 hPa 0,0 l/m 2,4 km/h (1 Bft) 0 min 0,0 km/h (0 Bft)
17.05.2010 08:12 16,5 C 11,1 C 2,1 UV-I 1,8 C 52 % 82 % 51 % 1020,2 hPa 0,0 l/m 3,2 km/h (1 Bft) 0 min 5,8 km/h (2 Bft)
17.05.2010 08:14 16,5 C 11,2 C 2,1 UV-I 1,8 C 52 % 81 % 51 % 1020,2 hPa 0,0 l/m 4,0 km/h (1 Bft) 0 min 6,8 km/h (2 Bft)
17.05.2010 08:16 16,5 C 11,3 C 1,8 UV-I 1,7 C 52 % 82 % 49 % 1020,2 hPa 0,0 l/m 2,8 km/h (1 Bft) 0 min 0,0 km/h (0 Bft)
17.05.2010 08:18 16,6 C 11,3 C 1,8 UV-I 1,7 C 52 % 81 % 49 % 1020,2 hPa 0,0 l/m 2,8 km/h (1 Bft) 0 min 0,0 km/h (0 Bft)
17.05.2010 08:20 16,6 C 11,3 C 1,8 UV-I 1,6 C 52 % 81 % 46 % 1020,2 hPa 0,0 l/m 3,6 km/h (1 Bft) 0 min 9,7 km/h (2 Bft)
17.05.2010 08:22 16,6 C 11,3 C 1,7 UV-I 1,6 C 52 % 81 % 46 % 1020,2 hPa 0,0 l/m 3,2 km/h (1 Bft) 0 min 0,0 km/h (0 Bft)
17.05.2010 08:24 16,6 C 11,4 C 1,7 UV-I 1,5 C 52 % 81 % 43 % 1020,2 hPa 0,0 l/m 2,8 km/h (1 Bft) 0 min 0,0 km/h (0 Bft)
17.05.2010 08:26 16,6 C 11,4 C 2,0 UV-I 1,5 C 52 % 81 % 43 % 1020,2 hPa 0,0 l/m 2,8 km/h (1 Bft) 0 min 3,5 km/h (1 Bft)
17.05.2010 08:28 16,6 C 11,4 C 2,0 UV-I 1,5 C 52 % 81 % 43 % 1020,2 hPa 0,0 l/m 3,2 km/h (1 Bft) 0 min 3,9 km/h (1 Bft)
17.05.2010 08:30 16,6 C 11,4 C 2,0 UV-I 1,5 C 53 % 81 % 43 % 1020,2 hPa 0,0 l/m 3,6 km/h (1 Bft) 0 min 11,3 km/h (2 Bft)
17.05.2010 08:32 16,6 C 11,4 C 2,1 UV-I 1,4 C 52 % 80 % 40 % 1020,3 hPa 0,0 l/m 3,6 km/h (1 Bft) 0 min 5,5 km/h (1 Bft)
17.05.2010 08:34 16,7 C 11,4 C 2,1 UV-I 1,3 C 53 % 81 % 37 % 1020,3 hPa 0,0 l/m 3,6 km/h (1 Bft) 0 min 0,0 km/h (0 Bft)
17.05.2010 08:36 16,6 C 11,5 C 2,6 UV-I 1,2 C 52 % 81 % 34 % 1020,3 hPa 0,0 l/m 3,6 km/h (1 Bft) 0 min 3,2 km/h (1 Bft)
17.05.2010 08:38 16,7 C 11,5 C 2,6 UV-I 1,3 C 52 % 81 % 37 % 1020,3 hPa 0,0 l/m 3,2 km/h (1 Bft) 0 min 0,0 km/h (0 Bft)
17.05.2010 08:40 16,7 C 11,5 C 2,6 UV-I 1,4 C 52 % 81 % 40 % 1020,3 hPa 0,0 l/m 2,8 km/h (1 Bft) 0 min 0,0 km/h (0 Bft)
17.05.2010 08:42 16,7 C 11,5 C 2,4 UV-I 1,6 C 52 % 81 % 46 % 1020,3 hPa 0,0 l/m 2,0 km/h (1 Bft) 0 min 4,8 km/h (1 Bft)
17.05.2010 08:44 16,7 C 11,5 C 2,4 UV-I 1,7 C 52 % 81 % 49 % 1020,3 hPa 0,0 l/m 2,0 km/h (1 Bft) 0 min 6,8 km/h (2 Bft)
17.05.2010 08:46 16,7 C 11,6 C 1,7 UV-I 1,5 C 52 % 81 % 43 % 1020,3 hPa 0,0 l/m 2,4 km/h (1 Bft) 0 min 0,0 km/h (0 Bft)
17.05.2010 08:48 16,7 C 11,5 C 1,7 UV-I 1,6 C 52 % 81 % 46 % 1020,3 hPa 0,0 l/m 2,4 km/h (1 Bft) 0 min 0,0 km/h (0 Bft)
17.05.2010 08:50 16,8 C 11,6 C 1,7 UV-I 1,4 C 53 % 81 % 40 % 1020,3 hPa 0,0 l/m 2,4 km/h (1 Bft) 0 min 3,9 km/h (1 Bft)
17.05.2010 08:52 16,8 C 11,6 C 2,2 UV-I 1,5 C 53 % 81 % 43 % 1020,6 hPa 0,0 l/m 2,8 km/h (1 Bft) 0 min 4,8 km/h (1 Bft)
17.05.2010 08:54 16,8 C 11,7 C 2,2 UV-I 1,4 C 53 % 81 % 40 % 1020,6 hPa 0,0 l/m 2,8 km/h (1 Bft) 0 min 3,5 km/h (1 Bft)
17.05.2010 08:56 16,8 C 11,7 C 3,2 UV-I 1,5 C 53 % 81 % 43 % 1020,6 hPa 0,0 l/m 2,4 km/h (1 Bft) 0 min 4,8 km/h (1 Bft)
17.05.2010 08:58 16,8 C 11,9 C 3,2 UV-I 1,8 C 53 % 81 % 51 % 1020,6 hPa 0,0 l/m 2,4 km/h (1 Bft) 0 min 4,8 km/h (1 Bft)
17.05.2010 09:00 16,8 C 11,9 C 3,2 UV-I 2,1 C 53 % 81 % 60 % 1020,6 hPa 0,0 l/m 2,8 km/h (1 Bft) 0 min 4,5 km/h (1 Bft)
17.05.2010 09:02 16,8 C 11,9 C 3,2 UV-I 2,3 C 53 % 80 % 66 % 1020,6 hPa 0,0 l/m 3,2 km/h (1 Bft) 0 min 6,1 km/h (2 Bft)
17.05.2010 09:04 16,8 C 12,0 C 3,2 UV-I 2,4 C 53 % 80 % 69 % 1020,6 hPa 0,0 l/m 3,2 km/h (1 Bft) 0 min 4,8 km/h (1 Bft)
17.05.2010 09:06 16,8 C 12,0 C 3,2 UV-I 2,5 C 53 % 80 % 71 % 1020,6 hPa 0,0 l/m 2,8 km/h (1 Bft) 0 min 0,0 km/h (0 Bft)
17.05.2010 09:08 16,8 C 12,1 C 3,2 UV-I 2,5 C 53 % 80 % 71 % 1020,6 hPa 0,0 l/m 3,2 km/h (1 Bft) 0 min 6,4 km/h (2 Bft)
17.05.2010 09:10 16,8 C 12,1 C 3,2 UV-I 2,5 C 53 % 80 % 71 % 1020,6 hPa 0,0 l/m 3,2 km/h (1 Bft) 0 min 0,0 km/h (0 Bft)
17.05.2010 09:12 16,8 C 12,1 C 2,6 UV-I 2,5 C 53 % 80 % 71 % 1020,6 hPa 0,0 l/m 3,6 km/h (1 Bft) 0 min 5,5 km/h (1 Bft)
17.05.2010 09:14 16,8 C 12,1 C 2,6 UV-I 2,3 C 53 % 79 % 66 % 1020,6 hPa 0,0 l/m 4,0 km/h (1 Bft) 0 min 6,8 km/h (2 Bft)
17.05.2010 09:16 16,8 C 12,0 C 0,8 UV-I 2,1 C 53 % 79 % 60 % 1020,6 hPa 0,0 l/m 4,4 km/h (1 Bft) 0 min 4,8 km/h (1 Bft)
17.05.2010 09:18 16,9 C 12,0 C 0,8 UV-I 1,9 C 53 % 79 % 54 % 1020,6 hPa 0,0 l/m 4,8 km/h (1 Bft) 0 min 4,2 km/h (1 Bft)
17.05.2010 09:20 16,9 C 12,0 C 0,8 UV-I 1,6 C 53 % 80 % 46 % 1020,6 hPa 0,0 l/m 4,0 km/h (1 Bft) 0 min 3,9 km/h (1 Bft)
17.05.2010 09:22 16,8 C 12,0 C 0,8 UV-I 1,3 C 53 % 80 % 37 % 1020,6 hPa 0,0 l/m 4,4 km/h (1 Bft) 0 min 6,4 km/h (2 Bft)
17.05.2010 09:24 16,9 C 11,9 C 0,8 UV-I 1,3 C 53 % 80 % 37 % 1020,6 hPa 0,0 l/m 4,0 km/h (1 Bft) 0 min 4,2 km/h (1 Bft)
17.05.2010 09:26 16,9 C 11,9 C 0,8 UV-I 1,0 C 53 % 80 % 29 % 1020,6 hPa 0,0 l/m 4,0 km/h (1 Bft) 0 min 6,8 km/h (2 Bft)
17.05.2010 09:28 16,9 C 11,9 C 0,8 UV-I 0,8 C 53 % 80 % 23 % 1020,6 hPa 0,0 l/m 3,6 km/h (1 Bft) 0 min 3,5 km/h (1 Bft)
17.05.2010 09:30 16,9 C 11,8 C 0,8 UV-I 0,8 C 53 % 80 % 23 % 1020,6 hPa 0,0 l/m 4,0 km/h (1 Bft) 0 min 11,6 km/h (2 Bft)
17.05.2010 09:32 16,9 C 11,9 C 0,5 UV-I 0,5 C 53 % 81 % 14 % 1020,7 hPa 0,0 l/m 4,0 km/h (1 Bft) 0 min 3,2 km/h (1 Bft)
17.05.2010 09:34 16,9 C 11,8 C 0,5 UV-I 0,4 C 53 % 81 % 11 % 1020,7 hPa 0,0 l/m 3,6 km/h (1 Bft) 0 min 4,2 km/h (1 Bft)
17.05.2010 09:36 16,9 C 11,8 C 0,0 UV-I 0,2 C 53 % 81 % 6 % 1020,7 hPa 0,0 l/m 3,2 km/h (1 Bft) 0 min 5,1 km/h (1 Bft)
17.05.2010 09:38 16,9 C 11,6 C 0,0 UV-I 0,2 C 53 % 82 % 6 % 1020,7 hPa 0,0 l/m 3,6 km/h (1 Bft) 0 min 3,9 km/h (1 Bft)
17.05.2010 09:40 16,9 C 11,6 C 0,0 UV-I 0,0 C 53 % 83 % 0 % 1020,7 hPa 0,1 l/m 4,0 km/h (1 Bft) 0 min 7,7 km/h (2 Bft)
17.05.2010 09:42 16,9 C 11,6 C 0,0 UV-I 0,0 C 53 % 83 % 0 % 1020,7 hPa 0,0 l/m 3,6 km/h (1 Bft) 0 min 0,0 km/h (0 Bft)
17.05.2010 09:44 16,8 C 11,4 C 0,0 UV-I 0,0 C 53 % 84 % 0 % 1020,7 hPa 0,0 l/m 3,2 km/h (1 Bft) 0 min 0,0 km/h (0 Bft)
17.05.2010 09:46 16,8 C 11,5 C 0,0 UV-I 0,0 C 53 % 84 % 0 % 1020,7 hPa 0,1 l/m 3,2 km/h (1 Bft) 0 min 3,2 km/h (1 Bft)
17.05.2010 09:48 16,9 C 11,3 C 0,0 UV-I 0,0 C 53 % 84 % 0 % 1020,7 hPa 0,0 l/m 2,4 km/h (1 Bft) 0 min 0,0 km/h (0 Bft)
17.05.2010 09:50 16,9 C 11,3 C 0,0 UV-I 0,0 C 53 % 85 % 0 % 1020,7 hPa 0,0 l/m 1,6 km/h (1 Bft) 0 min 6,4 km/h (2 Bft)
17.05.2010 09:52 16,8 C 11,2 C 0,0 UV-I 0,0 C 53 % 85 % 0 % 1021,1 hPa 0,2 l/m 2,0 km/h (1 Bft) 0 min 6,1 km/h (2 Bft)
17.05.2010 09:54 16,8 C 11,2 C 0,0 UV-I 0,0 C 53 % 86 % 0 % 1021,1 hPa 0,0 l/m 2,4 km/h (1 Bft) 0 min 0,0 km/h (0 Bft)
17.05.2010 09:56 16,8 C 11,1 C 0,0 UV-I 0,0 C 53 % 86 % 0 % 1021,1 hPa 0,1 l/m 2,4 km/h (1 Bft) 0 min 0,0 km/h (0 Bft)
17.05.2010 09:58 16,8 C 11,1 C 0,0 UV-I 0,0 C 53 % 86 % 0 % 1021,1 hPa 0,0 l/m 2,0 km/h (1 Bft) 0 min 0,0 km/h (0 Bft)
17.05.2010 10:00 16,8 C 11,0 C 0,0 UV-I 0,0 C 53 % 86 % 0 % 1021,1 hPa 0,0 l/m 2,0 km/h (1 Bft) 0 min 9,0 km/h (2 Bft)
17.05.2010 10:02 16,8 C 11,1 C 0,0 UV-I 0,0 C 53 % 86 % 0 % 1021,1 hPa 0,1 l/m 1,6 km/h (1 Bft) 0 min 0,0 km/h (0 Bft)
17.05.2010 10:04 16,8 C 10,9 C 0,0 UV-I 0,0 C 53 % 87 % 0 % 1021,1 hPa 0,2 l/m 0,4 km/h (0 Bft) 0 min 0,0 km/h (0 Bft)
17.05.2010 10:06 16,8 C 10,9 C 0,0 UV-I 0,0 C 53 % 87 % 0 % 1021,1 hPa 0,0 l/m 0,4 km/h (0 Bft) 0 min 0,0 km/h (0 Bft)
17.05.2010 10:08 16,8 C 10,9 C 0,0 UV-I 0,0 C 53 % 87 % 0 % 1021,1 hPa 0,0 l/m 0,8 km/h (0 Bft) 0 min 4,8 km/h (1 Bft)
17.05.2010 10:10 16,8 C 10,8 C 0,0 UV-I 0,0 C 53 % 88 % 0 % 1021,1 hPa 0,1 l/m 1,2 km/h (1 Bft) 0 min 5,1 km/h (1 Bft)
17.05.2010 10:12 16,8 C 10,9 C 0,0 UV-I 0,0 C 53 % 88 % 0 % 1020,7 hPa 0,0 l/m 1,2 km/h (1 Bft) 0 min 0,0 km/h (0 Bft)
17.05.2010 10:14 16,8 C 10,8 C 0,0 UV-I 0,0 C 53 % 88 % 0 % 1020,7 hPa 0,1 l/m 1,2 km/h (1 Bft) 0 min 0,0 km/h (0 Bft)
17.05.2010 10:16 16,8 C 10,8 C 0,0 UV-I 0,0 C 53 % 88 % 0 % 1020,7 hPa 0,0 l/m 1,2 km/h (1 Bft) 0 min 0,0 km/h (0 Bft)
17.05.2010 10:18 16,8 C 10,7 C 0,0 UV-I 0,0 C 53 % 89 % 0 % 1020,7 hPa 0,1 l/m 1,2 km/h (1 Bft) 0 min 5,5 km/h (1 Bft)
17.05.2010 10:20 16,8 C 10,7 C 0,0 UV-I 0,0 C 53 % 89 % 0 % 1020,7 hPa 0,3 l/m 2,0 km/h (1 Bft) 0 min 9,0 km/h (2 Bft)
17.05.2010 10:22 16,8 C 10,7 C 0,0 UV-I 0,0 C 53 % 89 % 0 % 1020,7 hPa 0,0 l/m 2,4 km/h (1 Bft) 0 min 4,8 km/h (1 Bft)
17.05.2010 10:28 16,8 C 10,6 C 0,5 UV-I 0,0 C 53 % 89 % 0 % 1020,7 hPa 0,1 l/m 3,2 km/h (1 Bft) 0 min 7,7 km/h (2 Bft)
17.05.2010 10:30 16,8 C 10,6 C 0,5 UV-I 0,0 C 54 % 89 % 0 % 1020,7 hPa 0,1 l/m 3,6 km/h (1 Bft) 0 min 12,9 km/h (3 Bft)
17.05.2010 10:32 16,8 C 10,7 C 0,9 UV-I 0,0 C 54 % 90 % 0 % 1021,0 hPa 0,0 l/m 2,8 km/h (1 Bft) 0 min 0,0 km/h (0 Bft)
17.05.2010 10:34 16,8 C 10,7 C 0,9 UV-I 0,0 C 54 % 90 % 0 % 1021,0 hPa 0,0 l/m 3,6 km/h (1 Bft) 0 min 0,0 km/h (0 Bft)
17.05.2010 10:36 16,8 C 10,5 C 0,7 UV-I 0,0 C 54 % 90 % 0 % 1021,0 hPa 0,0 l/m 4,0 km/h (1 Bft) 0 min 7,7 km/h (2 Bft)
17.05.2010 10:38 16,8 C 10,6 C 0,7 UV-I 0,0 C 54 % 90 % 0 % 1021,0 hPa 0,0 l/m 3,2 km/h (1 Bft) 0 min 0,0 km/h (0 Bft)
17.05.2010 10:40 16,8 C 10,7 C 0,7 UV-I 0,0 C 54 % 90 % 0 % 1021,0 hPa 0,0 l/m 3,2 km/h (1 Bft) 0 min 13,2 km/h (3 Bft)
17.05.2010 10:42 16,8 C 10,6 C 0,7 UV-I 0,0 C 54 % 90 % 0 % 1021,0 hPa 0,0 l/m 3,2 km/h (1 Bft) 0 min 0,0 km/h (0 Bft)
17.05.2010 10:44 16,8 C 10,7 C 0,7 UV-I 0,1 C 54 % 90 % 3 % 1021,0 hPa 0,0 l/m 2,8 km/h (1 Bft) 0 min 4,8 km/h (1 Bft)
17.05.2010 10:46 16,8 C 10,7 C 2,2 UV-I 0,2 C 54 % 90 % 6 % 1021,0 hPa 0,0 l/m 2,0 km/h (1 Bft) 0 min 0,0 km/h (0 Bft)
17.05.2010 10:48 16,8 C 10,8 C 2,2 UV-I 0,3 C 54 % 90 % 9 % 1021,0 hPa 0,0 l/m 1,6 km/h (1 Bft) 0 min 0,0 km/h (0 Bft)
17.05.2010 10:52 16,8 C 10,8 C 1,5 UV-I 0,7 C 54 % 90 % 20 % 1021,0 hPa 0,0 l/m 1,6 km/h (1 Bft) 0 min 5,8 km/h (2 Bft)
17.05.2010 10:54 16,8 C 10,9 C 1,5 UV-I 0,8 C 54 % 91 % 23 % 1021,0 hPa 0,0 l/m 1,6 km/h (1 Bft) 0 min 0,0 km/h (0 Bft)
17.05.2010 10:56 16,8 C 10,9 C 2,3 UV-I 0,9 C 54 % 91 % 26 % 1021,0 hPa 0,0 l/m 1,2 km/h (1 Bft) 0 min 0,0 km/h (0 Bft)
17.05.2010 10:58 16,8 C 10,9 C 2,3 UV-I 1,1 C 54 % 90 % 31 % 1021,0 hPa 0,0 l/m 1,2 km/h (1 Bft) 0 min 0,0 km/h (0 Bft)
17.05.2010 11:00 16,8 C 10,9 C 2,3 UV-I 1,3 C 54 % 90 % 37 % 1021,0 hPa 0,0 l/m 2,0 km/h (1 Bft) 0 min 0,0 km/h (0 Bft)
17.05.2010 11:02 16,8 C 11,1 C 1,8 UV-I 1,2 C 54 % 90 % 34 % 1021,0 hPa 0,0 l/m 1,6 km/h (1 Bft) 0 min 5,1 km/h (1 Bft)
17.05.2010 11:04 16,8 C 11,1 C 1,8 UV-I 1,2 C 54 % 90 % 34 % 1021,0 hPa 0,0 l/m 1,2 km/h (1 Bft) 0 min 4,5 km/h (1 Bft)
17.05.2010 11:06 16,8 C 11,1 C 1,8 UV-I 1,3 C 54 % 90 % 37 % 1021,0 hPa 0,0 l/m 1,6 km/h (1 Bft) 0 min 8,7 km/h (2 Bft)
17.05.2010 11:08 16,8 C 11,0 C 1,8 UV-I 1,4 C 54 % 89 % 40 % 1021,0 hPa 0,0 l/m 2,0 km/h (1 Bft) 0 min 0,0 km/h (0 Bft)
17.05.2010 11:10 16,8 C 11,1 C 1,8 UV-I 1,3 C 54 % 89 % 37 % 1021,0 hPa 0,0 l/m 1,6 km/h (1 Bft) 0 min 0,0 km/h (0 Bft)
17.05.2010 11:12 16,8 C 11,1 C 1,9 UV-I 1,4 C 54 % 89 % 40 % 1021,0 hPa 0,0 l/m 2,4 km/h (1 Bft) 0 min 7,1 km/h (2 Bft)
17.05.2010 11:14 16,8 C 11,1 C 1,9 UV-I 1,5 C 54 % 89 % 43 % 1021,0 hPa 0,0 l/m 2,4 km/h (1 Bft) 0 min 3,5 km/h (1 Bft)
17.05.2010 11:16 16,9 C 11,1 C 1,9 UV-I 1,4 C 54 % 89 % 40 % 1021,0 hPa 0,0 l/m 2,8 km/h (1 Bft) 0 min 4,5 km/h (1 Bft)
17.05.2010 11:18 16,9 C 11,1 C 1,9 UV-I 1,4 C 54 % 89 % 40 % 1021,0 hPa 0,0 l/m 2,0 km/h (1 Bft) 0 min 0,0 km/h (0 Bft)
17.05.2010 11:20 16,9 C 11,2 C 1,9 UV-I 1,2 C 54 % 89 % 34 % 1021,0 hPa 0,0 l/m 2,0 km/h (1 Bft) 0 min 0,0 km/h (0 Bft)
17.05.2010 11:22 16,9 C 11,2 C 1,9 UV-I 1,2 C 54 % 89 % 34 % 1021,0 hPa 0,0 l/m 2,0 km/h (1 Bft) 0 min 0,0 km/h (0 Bft)
17.05.2010 11:24 16,9 C 11,2 C 1,9 UV-I 1,2 C 54 % 89 % 34 % 1021,0 hPa 0,1 l/m 1,2 km/h (1 Bft) 0 min 0,0 km/h (0 Bft)
17.05.2010 11:26 16,9 C 11,3 C 2,5 UV-I 1,1 C 54 % 89 % 31 % 1021,0 hPa 0,0 l/m 1,6 km/h (1 Bft) 0 min 0,0 km/h (0 Bft)
17.05.2010 11:28 16,9 C 11,3 C 2,5 UV-I 1,2 C 54 % 89 % 34 % 1021,0 hPa 0,0 l/m 1,2 km/h (1 Bft) 0 min 3,5 km/h (1 Bft)
17.05.2010 11:30 16,9 C 11,3 C 2,5 UV-I 1,3 C 54 % 89 % 37 % 1021,0 hPa 0,0 l/m 1,6 km/h (1 Bft) 0 min 0,0 km/h (0 Bft)
17.05.2010 11:32 16,9 C 11,3 C 2,6 UV-I 1,4 C 54 % 89 % 40 % 1021,6 hPa 0,0 l/m 1,6 km/h (1 Bft) 0 min 0,0 km/h (0 Bft)
17.05.2010 11:34 17,0 C 11,5 C 2,6 UV-I 1,4 C 54 % 88 % 40 % 1021,6 hPa 0,0 l/m 2,0 km/h (1 Bft) 0 min 9,0 km/h (2 Bft)
17.05.2010 11:36 17,0 C 11,4 C 3,1 UV-I 1,6 C 54 % 87 % 46 % 1021,6 hPa 0,0 l/m 2,8 km/h (1 Bft) 0 min 5,8 km/h (2 Bft)
17.05.2010 11:38 16,9 C 11,5 C 3,1 UV-I 1,6 C 54 % 87 % 46 % 1021,6 hPa 0,0 l/m 2,4 km/h (1 Bft) 0 min 3,2 km/h (1 Bft)
17.05.2010 11:40 17,0 C 11,5 C 3,1 UV-I 1,6 C 54 % 87 % 46 % 1021,6 hPa 0,0 l/m 2,8 km/h (1 Bft) 0 min 0,0 km/h (0 Bft)
17.05.2010 11:42 17,0 C 11,6 C 3,6 UV-I 1,7 C 54 % 87 % 49 % 1021,6 hPa 0,0 l/m 2,4 km/h (1 Bft) 0 min 0,0 km/h (0 Bft)
17.05.2010 11:44 17,0 C 11,7 C 3,6 UV-I 1,8 C 54 % 87 % 51 % 1021,6 hPa 0,0 l/m 3,2 km/h (1 Bft) 0 min 0,0 km/h (0 Bft)
17.05.2010 11:46 17,0 C 11,6 C 3,6 UV-I 2,1 C 54 % 87 % 60 % 1021,6 hPa 0,0 l/m 2,0 km/h (1 Bft) 0 min 6,8 km/h (2 Bft)
17.05.2010 11:48 17,0 C 11,7 C 3,6 UV-I 2,2 C 54 % 87 % 63 % 1021,6 hPa 0,0 l/m 1,6 km/h (1 Bft) 0 min 0,0 km/h (0 Bft)
17.05.2010 11:50 17,0 C 11,9 C 3,6 UV-I 2,3 C 54 % 86 % 66 % 1021,6 hPa 0,0 l/m 1,6 km/h (1 Bft) 0 min 0,0 km/h (0 Bft)
17.05.2010 11:52 17,1 C 11,9 C 5,6 UV-I 2,5 C 54 % 87 % 71 % 1021,8 hPa 0,0 l/m 2,0 km/h (1 Bft) 0 min 3,5 km/h (1 Bft)
17.05.2010 11:54 17,1 C 12,0 C 5,6 UV-I 2,7 C 54 % 87 % 77 % 1021,8 hPa 0,0 l/m 2,4 km/h (1 Bft) 0 min 4,5 km/h (1 Bft)
17.05.2010 11:56 17,1 C 12,0 C 6,7 UV-I 3,2 C 54 % 86 % 91 % 1021,8 hPa 0,0 l/m 2,8 km/h (1 Bft) 2 min 5,5 km/h (1 Bft)
17.05.2010 12:04 17,2 C 12,2 C 6,1 UV-I 3,8 C 54 % 85 % 100 % 1021,8 hPa 0,0 l/m 4,0 km/h (1 Bft) 2 min 5,5 km/h (1 Bft)
17.05.2010 12:06 17,2 C 12,5 C 5,7 UV-I 3,6 C 54 % 85 % 100 % 1021,8 hPa 0,0 l/m 4,0 km/h (1 Bft) 2 min 7,1 km/h (2 Bft)
17.05.2010 12:08 17,2 C 12,5 C 5,7 UV-I 3,6 C 54 % 84 % 100 % 1021,8 hPa 0,0 l/m 3,2 km/h (1 Bft) 2 min 3,2 km/h (1 Bft)
17.05.2010 12:10 17,2 C 12,4 C 5,7 UV-I 3,9 C 54 % 84 % 100 % 1021,8 hPa 0,0 l/m 3,2 km/h (1 Bft) 2 min 3,5 km/h (1 Bft)
17.05.2010 12:12 17,2 C 12,5 C 6,9 UV-I 4,1 C 54 % 84 % 100 % 1021,9 hPa 0,0 l/m 3,6 km/h (1 Bft) 2 min 3,9 km/h (1 Bft)
17.05.2010 12:14 17,2 C 12,6 C 6,9 UV-I 4,4 C 54 % 83 % 100 % 1021,9 hPa 0,0 l/m 3,2 km/h (1 Bft) 2 min 3,5 km/h (1 Bft)
17.05.2010 12:16 17,3 C 12,8 C 8,4 UV-I 4,5 C 54 % 84 % 100 % 1021,9 hPa 0,0 l/m 2,8 km/h (1 Bft) 2 min 0,0 km/h (0 Bft)
17.05.2010 12:18 17,2 C 12,9 C 8,4 UV-I 5,0 C 54 % 82 % 100 % 1021,9 hPa 0,0 l/m 2,8 km/h (1 Bft) 2 min 5,1 km/h (1 Bft)
17.05.2010 12:20 17,2 C 12,9 C 8,4 UV-I 5,2 C 54 % 81 % 100 % 1021,9 hPa 0,0 l/m 2,8 km/h (1 Bft) 2 min 3,2 km/h (1 Bft)
17.05.2010 12:22 17,4 C 13,1 C 8,3 UV-I 5,3 C 54 % 81 % 100 % 1021,9 hPa 0,0 l/m 2,4 km/h (1 Bft) 2 min 5,8 km/h (2 Bft)
17.05.2010 12:24 17,4 C 13,1 C 8,3 UV-I 5,7 C 54 % 81 % 100 % 1021,9 hPa 0,0 l/m 2,4 km/h (1 Bft) 2 min 7,4 km/h (2 Bft)
17.05.2010 12:26 17,4 C 13,2 C 8,4 UV-I 5,9 C 54 % 81 % 100 % 1021,9 hPa 0,0 l/m 3,2 km/h (1 Bft) 2 min 3,2 km/h (1 Bft)
17.05.2010 12:30 17,4 C 13,3 C 8,4 UV-I 5,9 C 54 % 80 % 100 % 1021,9 hPa 0,0 l/m 2,4 km/h (1 Bft) 2 min 3,2 km/h (1 Bft)
17.05.2010 12:32 17,4 C 13,5 C 7,3 UV-I 5,8 C 53 % 80 % 100 % 1021,9 hPa 0,0 l/m 2,0 km/h (1 Bft) 2 min 0,0 km/h (0 Bft)
17.05.2010 12:34 17,4 C 13,5 C 7,3 UV-I 6,1 C 53 % 80 % 100 % 1021,9 hPa 0,0 l/m 2,4 km/h (1 Bft) 2 min 4,8 km/h (1 Bft)
17.05.2010 12:36 17,5 C 13,7 C 9,2 UV-I 6,2 C 53 % 79 % 100 % 1021,9 hPa 0,0 l/m 2,0 km/h (1 Bft) 2 min 0,0 km/h (0 Bft)
17.05.2010 12:38 17,5 C 13,7 C 9,2 UV-I 6,5 C 53 % 78 % 100 % 1021,9 hPa 0,0 l/m 2,0 km/h (1 Bft) 2 min 0,0 km/h (0 Bft)
17.05.2010 12:40 17,5 C 13,9 C 9,2 UV-I 6,2 C 53 % 78 % 100 % 1021,9 hPa 0,0 l/m 1,6 km/h (1 Bft) 2 min 0,0 km/h (0 Bft)
17.05.2010 12:42 17,6 C 13,9 C 5,7 UV-I 5,9 C 53 % 78 % 100 % 1021,9 hPa 0,0 l/m 1,6 km/h (1 Bft) 2 min 0,0 km/h (0 Bft)
17.05.2010 12:46 17,6 C 13,9 C 2,0 UV-I 4,8 C 53 % 78 % 100 % 1021,9 hPa 0,0 l/m 2,0 km/h (1 Bft) 2 min 5,8 km/h (2 Bft)
17.05.2010 12:50 17,6 C 13,9 C 2,0 UV-I 3,6 C 53 % 77 % 100 % 1021,9 hPa 0,0 l/m 1,6 km/h (1 Bft) 2 min 0,0 km/h (0 Bft)
17.05.2010 12:52 17,6 C 13,7 C 0,8 UV-I 3,2 C 53 % 76 % 91 % 1022,1 hPa 0,0 l/m 2,0 km/h (1 Bft) 2 min 6,1 km/h (2 Bft)
17.05.2010 12:54 17,6 C 13,6 C 0,8 UV-I 3,0 C 53 % 76 % 86 % 1022,1 hPa 0,0 l/m 2,0 km/h (1 Bft) 2 min 5,5 km/h (1 Bft)
17.05.2010 12:56 17,6 C 13,6 C 0,3 UV-I 2,5 C 53 % 76 % 71 % 1022,1 hPa 0,0 l/m 1,6 km/h (1 Bft) 0 min 3,2 km/h (1 Bft)
17.05.2010 12:58 17,6 C 13,5 C 0,3 UV-I 2,3 C 53 % 76 % 66 % 1022,1 hPa 0,0 l/m 1,6 km/h (1 Bft) 0 min 0,0 km/h (0 Bft)
17.05.2010 13:00 17,6 C 13,5 C 0,3 UV-I 1,9 C 53 % 76 % 54 % 1022,1 hPa 0,0 l/m 1,6 km/h (1 Bft) 0 min 0,0 km/h (0 Bft)
17.05.2010 13:02 17,6 C 13,5 C 0,1 UV-I 1,5 C 53 % 76 % 43 % 1022,1 hPa 0,0 l/m 1,6 km/h (1 Bft) 0 min 0,0 km/h (0 Bft)
17.05.2010 13:04 17,6 C 13,5 C 0,1 UV-I 1,2 C 53 % 76 % 34 % 1022,1 hPa 0,0 l/m 0,8 km/h (0 Bft) 0 min 0,0 km/h (0 Bft)
17.05.2010 13:06 17,6 C 13,3 C 0,0 UV-I 1,1 C 52 % 76 % 31 % 1022,1 hPa 0,0 l/m 0,4 km/h (0 Bft) 0 min 0,0 km/h (0 Bft)
17.05.2010 13:08 17,6 C 13,2 C 0,0 UV-I 0,8 C 52 % 76 % 23 % 1022,1 hPa 0,0 l/m 0,4 km/h (0 Bft) 0 min 0,0 km/h (0 Bft)
17.05.2010 13:10 17,6 C 13,2 C 0,0 UV-I 0,6 C 52 % 77 % 17 % 1022,1 hPa 0,0 l/m 0,0 km/h (0 Bft) 0 min 0,0 km/h (0 Bft)
17.05.2010 13:12 17,6 C 13,2 C 0,3 UV-I 0,4 C 52 % 78 % 11 % 1021,8 hPa 0,0 l/m 0,8 km/h (0 Bft) 0 min 5,1 km/h (1 Bft)
17.05.2010 13:14 17,6 C 13,2 C 0,3 UV-I 0,1 C 52 % 78 % 3 % 1021,8 hPa 0,1 l/m 0,8 km/h (0 Bft) 0 min 0,0 km/h (0 Bft)
17.05.2010 13:16 17,6 C 13,2 C 1,8 UV-I 0,1 C 53 % 78 % 3 % 1021,8 hPa 0,0 l/m 0,8 km/h (0 Bft) 0 min 0,0 km/h (0 Bft)
17.05.2010 13:18 17,6 C 13,2 C 1,8 UV-I 0,4 C 53 % 78 % 11 % 1021,8 hPa 0,0 l/m 0,8 km/h (0 Bft) 0 min 0,0 km/h (0 Bft)
17.05.2010 13:20 17,6 C 13,3 C 1,8 UV-I 0,6 C 53 % 78 % 17 % 1021,8 hPa 0,0 l/m 1,2 km/h (1 Bft) 0 min 3,2 km/h (1 Bft)
17.05.2010 13:22 17,6 C 13,5 C 5,3 UV-I 1,0 C 53 % 79 % 29 % 1021,8 hPa 0,0 l/m 1,2 km/h (1 Bft) 0 min 0,0 km/h (0 Bft)
17.05.2010 13:24 17,6 C 13,5 C 5,3 UV-I 1,6 C 53 % 78 % 46 % 1021,8 hPa 0,0 l/m 0,4 km/h (0 Bft) 0 min 5,8 km/h (2 Bft)
17.05.2010 13:26 17,6 C 13,6 C 5,2 UV-I 1,9 C 53 % 77 % 54 % 1021,8 hPa 0,0 l/m 0,8 km/h (0 Bft) 0 min 6,8 km/h (2 Bft)
17.05.2010 13:28 17,6 C 13,6 C 5,2 UV-I 2,2 C 53 % 77 % 63 % 1021,8 hPa 0,0 l/m 1,2 km/h (1 Bft) 0 min 3,2 km/h (1 Bft)
17.05.2010 13:30 17,6 C 13,6 C 5,2 UV-I 2,3 C 53 % 77 % 66 % 1021,8 hPa 0,0 l/m 1,2 km/h (1 Bft) 0 min 0,0 km/h (0 Bft)
17.05.2010 13:32 17,6 C 13,6 C 3,3 UV-I 2,3 C 53 % 77 % 66 % 1022,2 hPa 0,0 l/m 1,2 km/h (1 Bft) 0 min 4,5 km/h (1 Bft)
17.05.2010 13:34 17,7 C 13,6 C 3,3 UV-I 2,2 C 53 % 78 % 63 % 1022,2 hPa 0,0 l/m 1,2 km/h (1 Bft) 0 min 0,0 km/h (0 Bft)
17.05.2010 13:36 17,7 C 13,6 C 1,2 UV-I 2,0 C 53 % 78 % 57 % 1022,2 hPa 0,0 l/m 1,2 km/h (1 Bft) 0 min 0,0 km/h (0 Bft)
17.05.2010 13:38 17,6 C 13,6 C 1,2 UV-I 1,8 C 52 % 77 % 51 % 1022,2 hPa 0,0 l/m 0,4 km/h (0 Bft) 0 min 0,0 km/h (0 Bft)
17.05.2010 13:42 17,6 C 13,5 C 0,2 UV-I 1,4 C 52 % 78 % 40 % 1022,2 hPa 0,0 l/m 0,4 km/h (0 Bft) 0 min 3,5 km/h (1 Bft)
17.05.2010 13:44 17,6 C 13,5 C 0,2 UV-I 0,9 C 52 % 78 % 26 % 1022,2 hPa 0,0 l/m 1,6 km/h (1 Bft) 0 min 13,2 km/h (3 Bft)
17.05.2010 13:46 17,6 C 13,5 C 0,1 UV-I 0,4 C 52 % 78 % 11 % 1022,2 hPa 0,0 l/m 2,4 km/h (1 Bft) 0 min 6,4 km/h (2 Bft)
17.05.2010 13:48 17,6 C 13,3 C 0,1 UV-I 0,3 C 52 % 78 % 9 % 1022,2 hPa 0,0 l/m 4,0 km/h (1 Bft) 0 min 17,4 km/h (3 Bft)
17.05.2010 13:50 17,6 C 13,2 C 0,1 UV-I 0,0 C 52 % 78 % 0 % 1022,2 hPa 0,0 l/m 5,6 km/h (1 Bft) 0 min 17,4 km/h (3 Bft)
17.05.2010 13:52 17,6 C 13,0 C 0,6 UV-I 0,0 C 52 % 77 % 0 % 1022,1 hPa 0,0 l/m 6,8 km/h (2 Bft) 0 min 11,6 km/h (2 Bft)
17.05.2010 13:54 17,6 C 12,9 C 0,6 UV-I 0,0 C 52 % 75 % 0 % 1022,1 hPa 0,1 l/m 8,4 km/h (2 Bft) 0 min 9,7 km/h (2 Bft)
17.05.2010 13:56 17,6 C 12,6 C 1,4 UV-I 0,0 C 52 % 77 % 0 % 1022,1 hPa 0,0 l/m 7,6 km/h (2 Bft) 0 min 5,1 km/h (1 Bft)
17.05.2010 13:58 17,6 C 12,5 C 1,4 UV-I 0,0 C 53 % 77 % 0 % 1022,1 hPa 0,0 l/m 7,2 km/h (2 Bft) 0 min 5,8 km/h (2 Bft)
17.05.2010 14:02 17,6 C 12,5 C 3,3 UV-I 0,0 C 53 % 79 % 0 % 1022,1 hPa 0,1 l/m 5,2 km/h (1 Bft) 0 min 6,4 km/h (2 Bft)
17.05.2010 14:04 17,6 C 12,4 C 3,3 UV-I 0,0 C 53 % 79 % 0 % 1022,1 hPa 0,0 l/m 4,4 km/h (1 Bft) 0 min 4,2 km/h (1 Bft)
17.05.2010 14:06 17,6 C 12,4 C 4,1 UV-I 0,0 C 53 % 79 % 0 % 1022,1 hPa 0,0 l/m 3,2 km/h (1 Bft) 0 min 0,0 km/h (0 Bft)
17.05.2010 14:08 17,6 C 12,4 C 4,1 UV-I 0,0 C 53 % 80 % 0 % 1022,1 hPa 0,0 l/m 2,4 km/h (1 Bft) 0 min 3,9 km/h (1 Bft)
17.05.2010 14:10 17,6 C 12,4 C 4,1 UV-I 0,0 C 53 % 79 % 0 % 1022,1 hPa 0,0 l/m 1,6 km/h (1 Bft) 0 min 0,0 km/h (0 Bft)
17.05.2010 14:12 17,6 C 12,5 C 3,1 UV-I 0,2 C 53 % 80 % 6 % 1021,9 hPa 0,0 l/m 0,8 km/h (0 Bft) 0 min 0,0 km/h (0 Bft)
17.05.2010 14:14 17,6 C 12,4 C 3,1 UV-I 0,4 C 53 % 79 % 11 % 1021,9 hPa 0,0 l/m 0,4 km/h (0 Bft) 0 min 0,0 km/h (0 Bft)
17.05.2010 14:16 17,6 C 12,5 C 3,1 UV-I 0,4 C 53 % 79 % 11 % 1021,9 hPa 0,0 l/m 0,4 km/h (0 Bft) 0 min 0,0 km/h (0 Bft)
17.05.2010 14:18 17,6 C 12,5 C 3,1 UV-I 0,5 C 53 % 80 % 14 % 1021,9 hPa 0,0 l/m 0,0 km/h (0 Bft) 0 min 0,0 km/h (0 Bft)
17.05.2010 14:20 17,6 C 12,5 C 3,1 UV-I 0,6 C 53 % 80 % 17 % 1021,9 hPa 0,0 l/m 0,4 km/h (0 Bft) 0 min 0,0 km/h (0 Bft)
17.05.2010 14:22 17,6 C 12,6 C 3,9 UV-I 0,6 C 53 % 79 % 17 % 1021,9 hPa 0,0 l/m 0,8 km/h (0 Bft) 0 min 3,5 km/h (1 Bft)
17.05.2010 14:24 17,6 C 12,7 C 3,9 UV-I 0,7 C 53 % 79 % 20 % 1021,9 hPa 0,0 l/m 1,2 km/h (1 Bft) 0 min 0,0 km/h (0 Bft)
17.05.2010 14:28 17,6 C 13,1 C 6,7 UV-I 1,7 C 53 % 80 % 49 % 1021,9 hPa 0,0 l/m 2,0 km/h (1 Bft) 0 min 4,2 km/h (1 Bft)
17.05.2010 14:30 17,7 C 13,3 C 6,7 UV-I 2,6 C 53 % 78 % 74 % 1021,9 hPa 0,0 l/m 2,0 km/h (1 Bft) 0 min 0,0 km/h (0 Bft)
17.05.2010 14:32 17,8 C 13,5 C 8,6 UV-I 3,2 C 53 % 77 % 91 % 1022,8 hPa 0,0 l/m 1,6 km/h (1 Bft) 2 min 0,0 km/h (0 Bft)
17.05.2010 14:34 17,8 C 13,6 C 8,6 UV-I 4,0 C 53 % 78 % 100 % 1022,8 hPa 0,0 l/m 1,6 km/h (1 Bft) 2 min 0,0 km/h (0 Bft)
17.05.2010 14:36 17,8 C 13,9 C 8,7 UV-I 4,3 C 53 % 76 % 100 % 1022,8 hPa 0,0 l/m 1,6 km/h (1 Bft) 2 min 3,9 km/h (1 Bft)
17.05.2010 14:38 17,9 C 14,0 C 8,7 UV-I 4,8 C 53 % 74 % 100 % 1022,8 hPa 0,0 l/m 2,0 km/h (1 Bft) 2 min 5,5 km/h (1 Bft)
17.05.2010 14:40 18,0 C 14,2 C 8,7 UV-I 4,9 C 53 % 75 % 100 % 1022,8 hPa 0,0 l/m 2,0 km/h (1 Bft) 2 min 0,0 km/h (0 Bft)
17.05.2010 14:42 18,0 C 14,3 C 8,6 UV-I 5,2 C 53 % 74 % 100 % 1022,8 hPa 0,0 l/m 2,4 km/h (1 Bft) 2 min 5,1 km/h (1 Bft)
17.05.2010 14:44 18,1 C 14,5 C 8,6 UV-I 5,3 C 53 % 73 % 100 % 1022,8 hPa 0,0 l/m 3,2 km/h (1 Bft) 2 min 7,7 km/h (2 Bft)
17.05.2010 14:48 18,2 C 14,8 C 8,7 UV-I 5,3 C 53 % 70 % 100 % 1022,8 hPa 0,0 l/m 3,6 km/h (1 Bft) 2 min 4,2 km/h (1 Bft)
17.05.2010 14:52 18,2 C 15,1 C 8,5 UV-I 5,4 C 52 % 68 % 100 % 1023,7 hPa 0,0 l/m 3,2 km/h (1 Bft) 2 min 8,0 km/h (2 Bft)
17.05.2010 14:56 18,4 C 15,3 C 9,1 UV-I 5,6 C 52 % 67 % 100 % 1023,7 hPa 0,0 l/m 3,2 km/h (1 Bft) 2 min 8,4 km/h (2 Bft)
17.05.2010 14:58 18,5 C 15,5 C 9,1 UV-I 5,4 C 52 % 69 % 100 % 1023,7 hPa 0,0 l/m 2,8 km/h (1 Bft) 2 min 6,4 km/h (2 Bft)
17.05.2010 15:00 18,6 C 15,6 C 9,1 UV-I 5,4 C 52 % 66 % 100 % 1023,7 hPa 0,0 l/m 3,2 km/h (1 Bft) 2 min 5,1 km/h (1 Bft)
17.05.2010 15:02 18,7 C 15,7 C 9,4 UV-I 5,4 C 51 % 66 % 100 % 1023,7 hPa 0,0 l/m 2,4 km/h (1 Bft) 2 min 0,0 km/h (0 Bft)
17.05.2010 15:04 18,7 C 15,8 C 9,4 UV-I 5,5 C 51 % 65 % 100 % 1023,7 hPa 0,0 l/m 2,8 km/h (1 Bft) 2 min 3,9 km/h (1 Bft)
17.05.2010 15:10 19,0 C 16,1 C 8,8 UV-I 5,6 C 51 % 65 % 100 % 1023,7 hPa 0,0 l/m 1,6 km/h (1 Bft) 2 min 4,5 km/h (1 Bft)
17.05.2010 15:12 19,0 C 16,2 C 9,8 UV-I 6,0 C 50 % 63 % 100 % 1023,6 hPa 0,0 l/m 1,2 km/h (1 Bft) 2 min 0,0 km/h (0 Bft)
17.05.2010 15:14 19,1 C 16,0 C 9,8 UV-I 6,5 C 50 % 62 % 100 % 1023,6 hPa 0,0 l/m 2,0 km/h (1 Bft) 2 min 5,1 km/h (1 Bft)
17.05.2010 15:16 19,2 C 15,9 C 6,2 UV-I 6,5 C 50 % 62 % 100 % 1023,6 hPa 0,0 l/m 2,0 km/h (1 Bft) 2 min 0,0 km/h (0 Bft)
17.05.2010 15:18 19,2 C 15,7 C 6,2 UV-I 6,0 C 49 % 63 % 100 % 1023,6 hPa 0,0 l/m 1,2 km/h (1 Bft) 2 min 0,0 km/h (0 Bft)
17.05.2010 15:20 19,2 C 15,7 C 6,2 UV-I 5,3 C 49 % 65 % 100 % 1023,6 hPa 0,0 l/m 1,2 km/h (1 Bft) 2 min 3,9 km/h (1 Bft)
17.05.2010 15:30 19,2 C 15,2 C 1,5 UV-I 2,8 C 49 % 63 % 80 % 1023,6 hPa 0,0 l/m 2,8 km/h (1 Bft) 0 min 8,7 km/h (2 Bft)
17.05.2010 15:32 19,2 C 15,1 C 0,9 UV-I 2,4 C 49 % 65 % 69 % 1023,5 hPa 0,0 l/m 4,4 km/h (1 Bft) 0 min 8,4 km/h (2 Bft)
17.05.2010 15:34 19,2 C 14,9 C 0,9 UV-I 1,9 C 49 % 66 % 54 % 1023,5 hPa 0,0 l/m 6,0 km/h (2 Bft) 0 min 6,4 km/h (2 Bft)
17.05.2010 15:36 19,2 C 14,7 C 0,2 UV-I 1,6 C 49 % 67 % 46 % 1023,5 hPa 0,0 l/m 7,6 km/h (2 Bft) 0 min 16,1 km/h (3 Bft)
17.05.2010 15:38 19,2 C 14,5 C 0,2 UV-I 1,1 C 49 % 69 % 31 % 1023,5 hPa 0,1 l/m 8,4 km/h (2 Bft) 0 min 10,6 km/h (2 Bft)
17.05.2010 15:40 19,2 C 14,3 C 0,2 UV-I 0,4 C 48 % 70 % 11 % 1023,5 hPa 0,7 l/m 9,2 km/h (2 Bft) 0 min 17,7 km/h (3 Bft)
17.05.2010 15:42 19,1 C 13,9 C 0,2 UV-I 0,0 C 48 % 71 % 0 % 1023,5 hPa 0,0 l/m 8,0 km/h (2 Bft) 0 min 4,2 km/h (1 Bft)
17.05.2010 15:44 19,1 C 13,5 C 0,2 UV-I 0,0 C 48 % 72 % 0 % 1023,5 hPa 0,7 l/m 6,4 km/h (2 Bft) 0 min 0,0 km/h (0 Bft)
17.05.2010 15:46 19,1 C 13,2 C 0,2 UV-I 0,0 C 49 % 73 % 0 % 1023,5 hPa 0,2 l/m 4,4 km/h (1 Bft) 0 min 0,0 km/h (0 Bft)
17.05.2010 15:48 19,1 C 13,1 C 0,2 UV-I 0,0 C 49 % 74 % 0 % 1023,5 hPa 0,0 l/m 3,2 km/h (1 Bft) 0 min 0,0 km/h (0 Bft)
17.05.2010 15:50 19,0 C 12,9 C 0,2 UV-I 0,0 C 49 % 75 % 0 % 1023,5 hPa 0,1 l/m 2,0 km/h (1 Bft) 0 min 0,0 km/h (0 Bft)
17.05.2010 15:52 19,0 C 12,8 C 0,6 UV-I 0,0 C 49 % 75 % 0 % 1023,0 hPa 0,0 l/m 0,4 km/h (0 Bft) 0 min 0,0 km/h (0 Bft)
17.05.2010 15:54 19,0 C 12,7 C 0,6 UV-I 0,0 C 49 % 76 % 0 % 1023,0 hPa 0,0 l/m 0,0 km/h (0 Bft) 0 min 0,0 km/h (0 Bft)
17.05.2010 15:56 19,0 C 12,4 C 0,6 UV-I 0,0 C 49 % 77 % 0 % 1023,0 hPa 0,0 l/m 0,4 km/h (0 Bft) 0 min 3,2 km/h (1 Bft)
17.05.2010 15:58 19,0 C 12,4 C 0,6 UV-I 0,0 C 49 % 77 % 0 % 1023,0 hPa 0,0 l/m 0,4 km/h (0 Bft) 0 min 0,0 km/h (0 Bft)
17.05.2010 16:00 18,9 C 12,3 C 0,6 UV-I 0,0 C 49 % 77 % 0 % 1023,0 hPa 0,0 l/m 0,4 km/h (0 Bft) 0 min 0,0 km/h (0 Bft)
17.05.2010 16:02 18,9 C 12,2 C 0,9 UV-I 0,0 C 49 % 77 % 0 % 1023,0 hPa 0,0 l/m 0,0 km/h (0 Bft) 0 min 0,0 km/h (0 Bft)
17.05.2010 16:06 18,9 C 12,1 C 1,4 UV-I 0,0 C 49 % 79 % 0 % 1023,0 hPa 0,0 l/m 0,0 km/h (0 Bft) 0 min 0,0 km/h (0 Bft)
17.05.2010 16:08 18,8 C 12,0 C 1,4 UV-I 0,0 C 49 % 79 % 0 % 1023,0 hPa 0,0 l/m 0,0 km/h (0 Bft) 0 min 0,0 km/h (0 Bft)
17.05.2010 16:10 18,8 C 12,1 C 1,4 UV-I 0,0 C 49 % 80 % 0 % 1023,0 hPa 0,0 l/m 0,0 km/h (0 Bft) 0 min 0,0 km/h (0 Bft)
17.05.2010 16:12 18,8 C 12,1 C 2,3 UV-I 0,0 C 49 % 81 % 0 % 1022,8 hPa 0,0 l/m 0,0 km/h (0 Bft) 0 min 0,0 km/h (0 Bft)
17.05.2010 16:14 18,8 C 12,0 C 2,3 UV-I 0,0 C 49 % 82 % 0 % 1022,8 hPa 0,0 l/m 0,0 km/h (0 Bft) 0 min 0,0 km/h (0 Bft)
17.05.2010 16:16 18,8 C 12,0 C 2,6 UV-I 0,0 C 50 % 82 % 0 % 1022,8 hPa 0,0 l/m 0,0 km/h (0 Bft) 0 min 0,0 km/h (0 Bft)
17.05.2010 16:18 18,8 C 12,0 C 2,6 UV-I 0,0 C 50 % 83 % 0 % 1022,8 hPa 0,0 l/m 0,0 km/h (0 Bft) 0 min 0,0 km/h (0 Bft)
17.05.2010 16:20 18,7 C 12,1 C 2,6 UV-I 0,1 C 50 % 83 % 3 % 1022,8 hPa 0,0 l/m 0,0 km/h (0 Bft) 0 min 0,0 km/h (0 Bft)
17.05.2010 16:22 18,7 C 12,0 C 2,5 UV-I 0,3 C 50 % 83 % 9 % 1022,8 hPa 0,0 l/m 0,4 km/h (0 Bft) 0 min 3,5 km/h (1 Bft)
17.05.2010 16:24 18,7 C 12,0 C 2,5 UV-I 0,4 C 50 % 84 % 11 % 1022,8 hPa 0,0 l/m 0,4 km/h (0 Bft) 0 min 0,0 km/h (0 Bft)
17.05.2010 16:28 18,7 C 12,1 C 2,3 UV-I 0,6 C 50 % 84 % 17 % 1022,8 hPa 0,0 l/m 0,0 km/h (0 Bft) 0 min 0,0 km/h (0 Bft)
17.05.2010 16:30 18,6 C 12,1 C 2,3 UV-I 0,8 C 50 % 84 % 23 % 1022,8 hPa 0,0 l/m 0,0 km/h (0 Bft) 0 min 0,0 km/h (0 Bft)
17.05.2010 16:32 18,6 C 12,1 C 1,4 UV-I 0,8 C 50 % 84 % 23 % 1022,8 hPa 0,0 l/m 0,0 km/h (0 Bft) 0 min 0,0 km/h (0 Bft)
17.05.2010 16:34 18,6 C 12,1 C 1,4 UV-I 0,8 C 50 % 84 % 23 % 1022,8 hPa 0,0 l/m 0,4 km/h (0 Bft) 0 min 3,9 km/h (1 Bft)
17.05.2010 16:38 18,5 C 12,1 C 0,8 UV-I 0,4 C 50 % 81 % 11 % 1022,8 hPa 0,0 l/m 4,4 km/h (1 Bft) 0 min 5,8 km/h (2 Bft)
17.05.2010 16:43 18,5 C 12,0 C 1,0 UV-I 0,2 C 50 % 82 % 6 % 1022,8 hPa 0,0 l/m 6,0 km/h (2 Bft) 0 min 0,0 km/h (0 Bft)
17.05.2010 16:48 18,4 C 12,0 C 0,9 UV-I 0,0 C 50 % 83 % 0 % 1022,8 hPa 0,1 l/m 4,4 km/h (1 Bft) 0 min 3,2 km/h (1 Bft)
17.05.2010 16:53 18,4 C 11,9 C 0,5 UV-I 0,0 C 50 % 84 % 0 % 1022,8 hPa 0,0 l/m 4,0 km/h (1 Bft) 0 min 6,4 km/h (2 Bft)
17.05.2010 16:58 18,2 C 11,7 C 0,1 UV-I 0,0 C 51 % 84 % 0 % 1022,8 hPa 0,0 l/m 4,0 km/h (1 Bft) 0 min 5,1 km/h (1 Bft)
17.05.2010 17:03 18,2 C 11,7 C 0,0 UV-I 0,0 C 51 % 83 % 0 % 1022,8 hPa 0,0 l/m 4,0 km/h (1 Bft) 0 min 5,8 km/h (2 Bft)
17.05.2010 17:08 18,1 C 11,6 C 0,0 UV-I 0,0 C 51 % 82 % 0 % 1022,8 hPa 0,0 l/m 3,2 km/h (1 Bft) 0 min 0,0 km/h (0 Bft)
17.05.2010 17:13 18,1 C 11,5 C 0,0 UV-I 0,0 C 51 % 83 % 0 % 1023,1 hPa 0,0 l/m 1,6 km/h (1 Bft) 0 min 0,0 km/h (0 Bft)
17.05.2010 17:18 18,0 C 11,4 C 0,0 UV-I 0,0 C 51 % 84 % 0 % 1023,1 hPa 0,0 l/m 0,4 km/h (0 Bft) 0 min 0,0 km/h (0 Bft)
17.05.2010 17:23 18,0 C 11,5 C 0,0 UV-I 0,0 C 52 % 85 % 0 % 1023,1 hPa 0,0 l/m 0,8 km/h (0 Bft) 0 min 0,0 km/h (0 Bft)
17.05.2010 17:28 17,9 C 11,5 C 0,0 UV-I 0,0 C 52 % 85 % 0 % 1023,1 hPa 0,0 l/m 1,2 km/h (1 Bft) 0 min 0,0 km/h (0 Bft)
17.05.2010 17:33 17,8 C 11,4 C 0,0 UV-I 0,0 C 52 % 85 % 0 % 1023,0 hPa 0,1 l/m 1,2 km/h (1 Bft) 0 min 3,9 km/h (1 Bft)
17.05.2010 17:38 17,8 C 11,3 C 0,1 UV-I 0,0 C 52 % 86 % 0 % 1023,0 hPa 0,0 l/m 0,8 km/h (0 Bft) 0 min 0,0 km/h (0 Bft)
17.05.2010 17:43 17,8 C 11,3 C 0,1 UV-I 0,0 C 52 % 86 % 0 % 1023,0 hPa 0,0 l/m 0,8 km/h (0 Bft) 0 min 0,0 km/h (0 Bft)
17.05.2010 17:48 17,7 C 11,3 C 0,2 UV-I 0,0 C 52 % 86 % 0 % 1023,0 hPa 0,0 l/m 1,2 km/h (1 Bft) 0 min 3,5 km/h (1 Bft)
17.05.2010 17:53 17,6 C 11,3 C 0,2 UV-I 0,0 C 53 % 86 % 0 % 1023,4 hPa 0,0 l/m 2,8 km/h (1 Bft) 0 min 5,1 km/h (1 Bft)
17.05.2010 17:58 17,6 C 11,3 C 0,4 UV-I 0,0 C 53 % 85 % 0 % 1023,4 hPa 0,0 l/m 3,6 km/h (1 Bft) 0 min 7,1 km/h (2 Bft)
17.05.2010 18:03 17,6 C 11,3 C 0,4 UV-I 0,0 C 53 % 85 % 0 % 1023,4 hPa 0,0 l/m 2,8 km/h (1 Bft) 0 min 0,0 km/h (0 Bft)
17.05.2010 18:08 17,6 C 11,3 C 0,5 UV-I 0,0 C 53 % 85 % 0 % 1023,4 hPa 0,0 l/m 2,8 km/h (1 Bft) 0 min 4,5 km/h (1 Bft)
17.05.2010 18:13 17,5 C 11,3 C 0,5 UV-I 0,0 C 53 % 85 % 0 % 1023,6 hPa 0,0 l/m 2,0 km/h (1 Bft) 0 min 5,8 km/h (2 Bft)
17.05.2010 18:18 17,5 C 11,3 C 0,2 UV-I 0,0 C 53 % 85 % 0 % 1023,6 hPa 0,0 l/m 2,8 km/h (1 Bft) 0 min 0,0 km/h (0 Bft)
17.05.2010 18:23 17,5 C 11,3 C 0,2 UV-I 0,0 C 53 % 84 % 0 % 1023,6 hPa 0,0 l/m 3,6 km/h (1 Bft) 0 min 0,0 km/h (0 Bft)
17.05.2010 18:28 17,4 C 11,3 C 0,4 UV-I 0,0 C 53 % 84 % 0 % 1023,6 hPa 0,0 l/m 3,2 km/h (1 Bft) 0 min 4,8 km/h (1 Bft)
17.05.2010 18:33 17,4 C 11,4 C 0,6 UV-I 0,0 C 53 % 84 % 0 % 1023,6 hPa 0,0 l/m 2,4 km/h (1 Bft) 0 min 5,1 km/h (1 Bft)
17.05.2010 18:38 17,4 C 11,4 C 0,6 UV-I 0,0 C 53 % 84 % 0 % 1023,6 hPa 0,0 l/m 0,8 km/h (0 Bft) 0 min 0,0 km/h (0 Bft)
17.05.2010 18:43 17,4 C 11,4 C 0,5 UV-I 0,0 C 53 % 82 % 0 % 1023,6 hPa 0,0 l/m 2,4 km/h (1 Bft) 0 min 6,8 km/h (2 Bft)
17.05.2010 18:48 17,4 C 11,3 C 0,7 UV-I 0,0 C 54 % 82 % 0 % 1023,6 hPa 0,0 l/m 4,4 km/h (1 Bft) 0 min 15,1 km/h (3 Bft)
17.05.2010 18:51 17,4 C 11,4 C 1,0 UV-I 0,0 C 54 % 81 % 0 % 1024,1 hPa 0,0 l/m 5,6 km/h (1 Bft) 0 min 7,1 km/h (2 Bft)
17.05.2010 18:54 17,4 C 11,3 C 1,0 UV-I 0,0 C 54 % 81 % 0 % 1024,1 hPa 0,0 l/m 6,0 km/h (2 Bft) 0 min 12,9 km/h (3 Bft)
17.05.2010 18:56 17,4 C 11,3 C 0,9 UV-I 0,0 C 53 % 80 % 0 % 1024,1 hPa 0,0 l/m 7,2 km/h (2 Bft) 0 min 10,9 km/h (2 Bft)
17.05.2010 18:58 17,4 C 11,2 C 0,9 UV-I 0,0 C 54 % 80 % 0 % 1024,1 hPa 0,0 l/m 9,2 km/h (2 Bft) 0 min 11,9 km/h (2 Bft)
17.05.2010 19:00 17,4 C 11,3 C 0,9 UV-I 0,0 C 54 % 80 % 0 % 1024,1 hPa 0,0 l/m 11,2 km/h (2 Bft) 0 min 19,0 km/h (3 Bft)
17.05.2010 19:02 17,4 C 11,2 C 0,7 UV-I 0,0 C 54 % 80 % 0 % 1024,1 hPa 0,0 l/m 10,4 km/h (2 Bft) 0 min 8,0 km/h (2 Bft)
17.05.2010 19:04 17,4 C 11,3 C 0,7 UV-I 0,0 C 54 % 80 % 0 % 1024,1 hPa 0,0 l/m 11,2 km/h (2 Bft) 0 min 12,2 km/h (2 Bft)
17.05.2010 19:06 17,4 C 11,3 C 1,1 UV-I 0,0 C 53 % 80 % 0 % 1024,1 hPa 0,0 l/m 11,2 km/h (2 Bft) 0 min 9,3 km/h (2 Bft)
17.05.2010 19:08 17,4 C 11,2 C 1,1 UV-I 0,0 C 54 % 80 % 0 % 1024,1 hPa 0,0 l/m 11,6 km/h (2 Bft) 0 min 10,6 km/h (2 Bft)
17.05.2010 19:10 17,4 C 11,2 C 1,1 UV-I 0,0 C 53 % 80 % 0 % 1024,1 hPa 0,0 l/m 11,6 km/h (2 Bft) 0 min 25,1 km/h (4 Bft)
17.05.2010 19:12 17,4 C 11,1 C 1,2 UV-I 0,1 C 54 % 80 % 3 % 1023,6 hPa 0,0 l/m 11,2 km/h (2 Bft) 0 min 11,6 km/h (2 Bft)
17.05.2010 19:14 17,4 C 11,1 C 1,2 UV-I 0,1 C 53 % 80 % 3 % 1023,6 hPa 0,0 l/m 12,0 km/h (2 Bft) 0 min 10,0 km/h (2 Bft)
17.05.2010 19:16 17,4 C 11,1 C 1,4 UV-I 0,1 C 54 % 80 % 3 % 1023,6 hPa 0,0 l/m 11,2 km/h (2 Bft) 0 min 8,7 km/h (2 Bft)
17.05.2010 19:18 17,4 C 11,1 C 1,4 UV-I 0,1 C 54 % 80 % 3 % 1023,6 hPa 0,0 l/m 11,2 km/h (2 Bft) 0 min 14,2 km/h (3 Bft)
17.05.2010 19:20 17,4 C 11,1 C 1,4 UV-I 0,1 C 54 % 80 % 3 % 1023,6 hPa 0,0 l/m 10,8 km/h (2 Bft) 0 min 9,3 km/h (2 Bft)
17.05.2010 19:22 17,4 C 11,1 C 1,0 UV-I 0,1 C 53 % 79 % 3 % 1023,6 hPa 0,0 l/m 10,8 km/h (2 Bft) 0 min 13,8 km/h (3 Bft)
17.05.2010 19:24 17,4 C 11,2 C 1,0 UV-I 0,0 C 53 % 80 % 0 % 1023,6 hPa 0,0 l/m 10,8 km/h (2 Bft) 0 min 10,6 km/h (2 Bft)
17.05.2010 19:26 17,4 C 11,2 C 1,2 UV-I 0,0 C 54 % 80 % 0 % 1023,6 hPa 0,0 l/m 10,4 km/h (2 Bft) 0 min 10,3 km/h (2 Bft)
17.05.2010 19:28 17,4 C 11,1 C 1,2 UV-I 0,2 C 53 % 79 % 6 % 1023,6 hPa 0,0 l/m 10,4 km/h (2 Bft) 0 min 6,1 km/h (2 Bft)
17.05.2010 19:30 17,4 C 11,2 C 1,2 UV-I 0,1 C 53 % 79 % 3 % 1023,6 hPa 0,0 l/m 10,4 km/h (2 Bft) 0 min 6,1 km/h (2 Bft)
17.05.2010 19:32 17,4 C 11,3 C 1,0 UV-I 0,0 C 53 % 79 % 0 % 1023,8 hPa 0,0 l/m 9,2 km/h (2 Bft) 0 min 5,1 km/h (1 Bft)
17.05.2010 19:34 17,4 C 11,2 C 1,0 UV-I 0,0 C 53 % 79 % 0 % 1023,8 hPa 0,0 l/m 8,0 km/h (2 Bft) 0 min 4,8 km/h (1 Bft)
17.05.2010 19:36 17,4 C 11,3 C 0,8 UV-I 0,0 C 53 % 78 % 0 % 1023,8 hPa 0,0 l/m 6,8 km/h (2 Bft) 0 min 6,1 km/h (2 Bft)
17.05.2010 19:38 17,4 C 11,3 C 0,8 UV-I 0,0 C 53 % 78 % 0 % 1023,8 hPa 0,0 l/m 6,8 km/h (2 Bft) 0 min 4,8 km/h (1 Bft)
17.05.2010 19:40 17,4 C 11,2 C 0,8 UV-I 0,0 C 53 % 78 % 0 % 1023,8 hPa 0,0 l/m 5,6 km/h (1 Bft) 0 min 4,8 km/h (1 Bft)
17.05.2010 19:42 17,4 C 11,2 C 0,8 UV-I 0,0 C 53 % 78 % 0 % 1023,8 hPa 0,0 l/m 4,8 km/h (1 Bft) 0 min 3,5 km/h (1 Bft)
17.05.2010 19:44 17,4 C 11,1 C 0,8 UV-I 0,0 C 53 % 78 % 0 % 1023,8 hPa 0,0 l/m 4,0 km/h (1 Bft) 0 min 0,0 km/h (0 Bft)
17.05.2010 19:46 17,4 C 11,2 C 0,6 UV-I 0,0 C 53 % 79 % 0 % 1023,8 hPa 0,0 l/m 3,2 km/h (1 Bft) 0 min 0,0 km/h (0 Bft)
17.05.2010 19:48 17,4 C 11,1 C 0,6 UV-I 0,0 C 53 % 79 % 0 % 1023,8 hPa 0,0 l/m 2,4 km/h (1 Bft) 0 min 0,0 km/h (0 Bft)
17.05.2010 19:50 17,4 C 11,0 C 0,6 UV-I 0,0 C 53 % 79 % 0 % 1023,8 hPa 0,0 l/m 1,6 km/h (1 Bft) 0 min 0,0 km/h (0 Bft)
17.05.2010 19:52 17,4 C 11,1 C 0,5 UV-I 0,0 C 53 % 79 % 0 % 1023,8 hPa 0,0 l/m 1,2 km/h (1 Bft) 0 min 0,0 km/h (0 Bft)
17.05.2010 19:54 17,4 C 11,0 C 0,5 UV-I 0,0 C 53 % 80 % 0 % 1023,8 hPa 0,0 l/m 0,4 km/h (0 Bft) 0 min 0,0 km/h (0 Bft)
17.05.2010 19:56 17,2 C 11,1 C 0,1 UV-I 0,0 C 53 % 80 % 0 % 1023,8 hPa 0,0 l/m 0,4 km/h (0 Bft) 0 min 0,0 km/h (0 Bft)
17.05.2010 19:58 17,2 C 11,0 C 0,1 UV-I 0,0 C 53 % 80 % 0 % 1023,8 hPa 0,0 l/m 0,0 km/h (0 Bft) 0 min 0,0 km/h (0 Bft)
17.05.2010 20:00 17,2 C 11,1 C 0,1 UV-I 0,0 C 53 % 80 % 0 % 1023,8 hPa 0,0 l/m 0,0 km/h (0 Bft) 0 min 0,0 km/h (0 Bft)
17.05.2010 20:02 17,2 C 11,1 C 0,0 UV-I 0,0 C 53 % 80 % 0 % 1023,8 hPa 0,0 l/m 0,0 km/h (0 Bft) 0 min 0,0 km/h (0 Bft)
17.05.2010 20:04 17,2 C 11,0 C 0,0 UV-I 0,0 C 53 % 80 % 0 % 1023,8 hPa 0,0 l/m 0,0 km/h (0 Bft) 0 min 0,0 km/h (0 Bft)
17.05.2010 20:06 17,2 C 11,0 C 0,0 UV-I 0,0 C 53 % 80 % 0 % 1023,8 hPa 0,0 l/m 0,8 km/h (0 Bft) 0 min 5,1 km/h (1 Bft)
17.05.2010 20:08 17,2 C 11,1 C 0,0 UV-I 0,0 C 53 % 80 % 0 % 1023,8 hPa 0,0 l/m 1,2 km/h (1 Bft) 0 min 4,5 km/h (1 Bft)
17.05.2010 20:10 17,3 C 11,0 C 0,0 UV-I 0,0 C 53 % 79 % 0 % 1023,8 hPa 0,0 l/m 1,6 km/h (1 Bft) 0 min 0,0 km/h (0 Bft)
17.05.2010 20:12 17,2 C 11,1 C 0,0 UV-I 0,0 C 53 % 80 % 0 % 1024,1 hPa 0,0 l/m 1,6 km/h (1 Bft) 0 min 0,0 km/h (0 Bft)
17.05.2010 20:14 17,3 C 11,1 C 0,0 UV-I 0,0 C 53 % 80 % 0 % 1024,1 hPa 0,0 l/m 1,6 km/h (1 Bft) 0 min 0,0 km/h (0 Bft)
17.05.2010 20:16 17,3 C 11,1 C 0,0 UV-I 0,0 C 53 % 80 % 0 % 1024,1 hPa 0,0 l/m 2,0 km/h (1 Bft) 0 min 5,1 km/h (1 Bft)
17.05.2010 20:18 17,2 C 11,1 C 0,0 UV-I 0,0 C 53 % 79 % 0 % 1024,1 hPa 0,0 l/m 1,6 km/h (1 Bft) 0 min 0,0 km/h (0 Bft)
17.05.2010 20:20 17,2 C 11,0 C 0,0 UV-I 0,0 C 53 % 79 % 0 % 1024,1 hPa 0,0 l/m 1,2 km/h (1 Bft) 0 min 0,0 km/h (0 Bft)
17.05.2010 20:22 17,2 C 10,9 C 0,0 UV-I 0,0 C 53 % 79 % 0 % 1024,1 hPa 0,0 l/m 1,2 km/h (1 Bft) 0 min 0,0 km/h (0 Bft)
17.05.2010 20:24 17,2 C 10,9 C 0,0 UV-I 0,0 C 53 % 78 % 0 % 1024,1 hPa 0,0 l/m 1,6 km/h (1 Bft) 0 min 5,5 km/h (1 Bft)
17.05.2010 20:26 17,2 C 10,9 C 0,0 UV-I 0,0 C 53 % 78 % 0 % 1024,1 hPa 0,0 l/m 3,2 km/h (1 Bft) 0 min 8,4 km/h (2 Bft)
17.05.2010 20:28 17,2 C 11,0 C 0,0 UV-I 0,0 C 53 % 78 % 0 % 1024,1 hPa 0,0 l/m 4,0 km/h (1 Bft) 0 min 7,4 km/h (2 Bft)
17.05.2010 20:30 17,2 C 10,9 C 0,0 UV-I 0,0 C 53 % 77 % 0 % 1024,1 hPa 0,0 l/m 4,8 km/h (1 Bft) 0 min 11,6 km/h (2 Bft)
17.05.2010 20:32 17,2 C 10,9 C 0,0 UV-I 0,0 C 53 % 77 % 0 % 1024,4 hPa 0,0 l/m 6,4 km/h (2 Bft) 0 min 13,5 km/h (3 Bft)
17.05.2010 20:34 17,2 C 10,8 C 0,0 UV-I 0,0 C 53 % 77 % 0 % 1024,4 hPa 0,0 l/m 8,4 km/h (2 Bft) 0 min 17,1 km/h (3 Bft)
17.05.2010 20:36 17,2 C 10,8 C 0,0 UV-I 0,0 C 53 % 77 % 0 % 1024,4 hPa 0,0 l/m 8,8 km/h (2 Bft) 0 min 10,3 km/h (2 Bft)
17.05.2010 20:38 17,2 C 10,9 C 0,0 UV-I 0,0 C 53 % 77 % 0 % 1024,4 hPa 0,0 l/m 9,6 km/h (2 Bft) 0 min 8,4 km/h (2 Bft)
17.05.2010 20:40 17,2 C 10,8 C 0,0 UV-I 0,0 C 53 % 77 % 0 % 1024,4 hPa 0,0 l/m 9,6 km/h (2 Bft) 0 min 9,0 km/h (2 Bft)
17.05.2010 20:42 17,2 C 10,8 C 0,0 UV-I 0,0 C 53 % 78 % 0 % 1024,4 hPa 0,0 l/m 10,0 km/h (2 Bft) 0 min 9,0 km/h (2 Bft)
17.05.2010 20:44 17,2 C 10,7 C 0,0 UV-I 0,0 C 53 % 78 % 0 % 1024,4 hPa 0,0 l/m 9,2 km/h (2 Bft) 0 min 5,1 km/h (1 Bft)
17.05.2010 20:46 17,2 C 10,7 C 0,0 UV-I 0,0 C 53 % 78 % 0 % 1024,4 hPa 0,0 l/m 9,2 km/h (2 Bft) 0 min 10,0 km/h (2 Bft)
17.05.2010 20:48 17,2 C 10,7 C 0,0 UV-I 0,0 C 53 % 78 % 0 % 1024,4 hPa 0,0 l/m 8,8 km/h (2 Bft) 0 min 6,1 km/h (2 Bft)
17.05.2010 20:50 17,1 C 10,5 C 0,0 UV-I 0,0 C 53 % 79 % 0 % 1024,4 hPa 0,0 l/m 8,0 km/h (2 Bft) 0 min 6,1 km/h (2 Bft)
17.05.2010 20:52 17,1 C 10,5 C 0,0 UV-I 0,0 C 54 % 79 % 0 % 1024,6 hPa 0,0 l/m 7,6 km/h (2 Bft) 0 min 8,7 km/h (2 Bft)
17.05.2010 20:54 17,1 C 10,4 C 0,0 UV-I 0,0 C 53 % 79 % 0 % 1024,6 hPa 0,0 l/m 7,2 km/h (2 Bft) 0 min 12,6 km/h (3 Bft)
17.05.2010 20:56 17,1 C 10,4 C 0,0 UV-I 0,0 C 53 % 79 % 0 % 1024,6 hPa 0,0 l/m 7,6 km/h (2 Bft) 0 min 8,4 km/h (2 Bft)
17.05.2010 20:58 17,1 C 10,3 C 0,0 UV-I 0,0 C 54 % 79 % 0 % 1024,6 hPa 0,0 l/m 6,8 km/h (2 Bft) 0 min 0,0 km/h (0 Bft)
17.05.2010 21:00 17,1 C 10,3 C 0,0 UV-I 0,0 C 54 % 80 % 0 % 1024,6 hPa 0,0 l/m 6,0 km/h (2 Bft) 0 min 0,0 km/h (0 Bft)
17.05.2010 21:02 17,1 C 10,1 C 0,0 UV-I 0,0 C 54 % 80 % 0 % 1024,6 hPa 0,0 l/m 5,6 km/h (1 Bft) 0 min 6,1 km/h (2 Bft)
17.05.2010 21:04 17,1 C 10,1 C 0,0 UV-I 0,0 C 54 % 80 % 0 % 1024,6 hPa 0,0 l/m 5,2 km/h (1 Bft) 0 min 8,7 km/h (2 Bft)
17.05.2010 21:06 17,1 C 10,0 C 0,0 UV-I 0,0 C 54 % 80 % 0 % 1024,6 hPa 0,0 l/m 5,2 km/h (1 Bft) 0 min 17,1 km/h (3 Bft)
17.05.2010 21:08 17,0 C 10,1 C 0,0 UV-I 0,0 C 54 % 81 % 0 % 1024,6 hPa 0,0 l/m 6,0 km/h (2 Bft) 0 min 8,4 km/h (2 Bft)
17.05.2010 21:10 17,0 C 10,0 C 0,0 UV-I 0,0 C 54 % 81 % 0 % 1024,6 hPa 0,0 l/m 8,0 km/h (2 Bft) 0 min 9,0 km/h (2 Bft)
17.05.2010 21:12 17,0 C 10,0 C 0,0 UV-I 0,0 C 54 % 81 % 0 % 1025,1 hPa 0,0 l/m 9,6 km/h (2 Bft) 0 min 5,1 km/h (1 Bft)
17.05.2010 21:14 17,0 C 10,0 C 0,0 UV-I 0,0 C 54 % 81 % 0 % 1025,1 hPa 0,0 l/m 10,4 km/h (2 Bft) 0 min 10,9 km/h (2 Bft)
17.05.2010 21:16 17,0 C 9,9 C 0,0 UV-I 0,0 C 54 % 81 % 0 % 1025,1 hPa 0,0 l/m 11,2 km/h (2 Bft) 0 min 12,6 km/h (3 Bft)
17.05.2010 21:18 17,0 C 9,9 C 0,0 UV-I 0,0 C 54 % 81 % 0 % 1025,1 hPa 0,0 l/m 9,6 km/h (2 Bft) 0 min 7,4 km/h (2 Bft)
17.05.2010 21:20 17,0 C 9,9 C 0,0 UV-I 0,0 C 54 % 81 % 0 % 1025,1 hPa 0,0 l/m 9,6 km/h (2 Bft) 0 min 16,7 km/h (3 Bft)
17.05.2010 21:22 17,0 C 9,8 C 0,0 UV-I 0,0 C 54 % 81 % 0 % 1025,1 hPa 0,0 l/m 10,4 km/h (2 Bft) 0 min 9,0 km/h (2 Bft)
17.05.2010 21:24 16,9 C 9,9 C 0,0 UV-I 0,0 C 54 % 81 % 0 % 1025,1 hPa 0,0 l/m 10,0 km/h (2 Bft) 0 min 9,7 km/h (2 Bft)
17.05.2010 21:26 16,9 C 9,8 C 0,0 UV-I 0,0 C 54 % 82 % 0 % 1025,1 hPa 0,0 l/m 10,4 km/h (2 Bft) 0 min 8,7 km/h (2 Bft)
17.05.2010 21:28 16,9 C 9,7 C 0,0 UV-I 0,0 C 54 % 82 % 0 % 1025,1 hPa 0,0 l/m 9,2 km/h (2 Bft) 0 min 3,9 km/h (1 Bft)
17.05.2010 21:30 16,9 C 9,6 C 0,0 UV-I 0,0 C 53 % 82 % 0 % 1025,1 hPa 0,0 l/m 9,2 km/h (2 Bft) 0 min 7,1 km/h (2 Bft)
17.05.2010 21:32 16,9 C 9,6 C 0,0 UV-I 0,0 C 54 % 82 % 0 % 1025,1 hPa 0,1 l/m 7,6 km/h (2 Bft) 0 min 0,0 km/h (0 Bft)
17.05.2010 21:34 16,8 C 9,5 C 0,0 UV-I 0,0 C 54 % 83 % 0 % 1025,1 hPa 0,0 l/m 6,4 km/h (2 Bft) 0 min 0,0 km/h (0 Bft)
17.05.2010 21:36 16,8 C 9,5 C 0,0 UV-I 0,0 C 54 % 83 % 0 % 1025,1 hPa 0,0 l/m 5,2 km/h (1 Bft) 0 min 6,8 km/h (2 Bft)
17.05.2010 21:38 16,8 C 9,5 C 0,0 UV-I 0,0 C 54 % 83 % 0 % 1025,1 hPa 0,1 l/m 4,4 km/h (1 Bft) 0 min 0,0 km/h (0 Bft)
17.05.2010 21:40 16,8 C 9,4 C 0,0 UV-I 0,0 C 54 % 83 % 0 % 1025,1 hPa 0,0 l/m 4,4 km/h (1 Bft) 0 min 4,8 km/h (1 Bft)
17.05.2010 21:42 16,8 C 9,3 C 0,0 UV-I 0,0 C 54 % 83 % 0 % 1025,1 hPa 0,0 l/m 3,6 km/h (1 Bft) 0 min 6,1 km/h (2 Bft)
17.05.2010 21:44 16,8 C 9,2 C 0,0 UV-I 0,0 C 54 % 84 % 0 % 1025,1 hPa 0,0 l/m 3,2 km/h (1 Bft) 0 min 0,0 km/h (0 Bft)
17.05.2010 21:46 16,7 C 9,2 C 0,0 UV-I 0,0 C 54 % 84 % 0 % 1025,1 hPa 0,0 l/m 3,6 km/h (1 Bft) 0 min 3,9 km/h (1 Bft)
17.05.2010 21:48 16,7 C 9,2 C 0,0 UV-I 0,0 C 54 % 84 % 0 % 1025,1 hPa 0,0 l/m 2,4 km/h (1 Bft) 0 min 0,0 km/h (0 Bft)
17.05.2010 21:50 16,7 C 9,2 C 0,0 UV-I 0,0 C 54 % 85 % 0 % 1025,1 hPa 0,0 l/m 1,6 km/h (1 Bft) 0 min 0,0 km/h (0 Bft)
17.05.2010 21:52 16,7 C 9,2 C 0,0 UV-I 0,0 C 54 % 85 % 0 % 1025,4 hPa 0,0 l/m 1,2 km/h (1 Bft) 0 min 0,0 km/h (0 Bft)
17.05.2010 21:54 16,7 C 9,1 C 0,0 UV-I 0,0 C 54 % 84 % 0 % 1025,4 hPa 0,0 l/m 0,4 km/h (0 Bft) 0 min 0,0 km/h (0 Bft)
17.05.2010 21:56 16,7 C 9,1 C 0,0 UV-I 0,0 C 54 % 84 % 0 % 1025,4 hPa 0,0 l/m 0,4 km/h (0 Bft) 0 min 0,0 km/h (0 Bft)
17.05.2010 21:58 16,7 C 9,1 C 0,0 UV-I 0,0 C 54 % 85 % 0 % 1025,4 hPa 0,0 l/m 0,0 km/h (0 Bft) 0 min 0,0 km/h (0 Bft)
17.05.2010 22:00 16,7 C 9,1 C 0,0 UV-I 0,0 C 54 % 85 % 0 % 1025,4 hPa 0,0 l/m 0,0 km/h (0 Bft) 0 min 0,0 km/h (0 Bft)
17.05.2010 22:02 16,7 C 9,0 C 0,0 UV-I 0,0 C 54 % 85 % 0 % 1025,4 hPa 0,0 l/m 0,0 km/h (0 Bft) 0 min 0,0 km/h (0 Bft)
17.05.2010 22:04 16,7 C 9,0 C 0,0 UV-I 0,0 C 54 % 86 % 0 % 1025,4 hPa 0,0 l/m 0,0 km/h (0 Bft) 0 min 3,9 km/h (1 Bft)
17.05.2010 22:06 16,7 C 9,1 C 0,0 UV-I 0,0 C 54 % 86 % 0 % 1025,4 hPa 0,0 l/m 0,8 km/h (0 Bft) 0 min 4,2 km/h (1 Bft)
17.05.2010 22:08 16,7 C 8,9 C 0,0 UV-I 0,0 C 54 % 86 % 0 % 1025,4 hPa 0,0 l/m 1,6 km/h (1 Bft) 0 min 4,2 km/h (1 Bft)
17.05.2010 22:10 16,7 C 8,9 C 0,0 UV-I 0,0 C 54 % 87 % 0 % 1025,4 hPa 0,1 l/m 2,0 km/h (1 Bft) 0 min 3,9 km/h (1 Bft)
17.05.2010 22:12 16,7 C 8,9 C 0,0 UV-I 0,0 C 54 % 87 % 0 % 1025,7 hPa 0,0 l/m 2,0 km/h (1 Bft) 0 min 3,9 km/h (1 Bft)
17.05.2010 22:14 16,7 C 8,8 C 0,0 UV-I 0,0 C 54 % 87 % 0 % 1025,7 hPa 0,0 l/m 2,4 km/h (1 Bft) 0 min 0,0 km/h (0 Bft)
17.05.2010 22:16 16,7 C 8,8 C 0,0 UV-I 0,0 C 54 % 87 % 0 % 1025,7 hPa 0,0 l/m 1,6 km/h (1 Bft) 0 min 0,0 km/h (0 Bft)
17.05.2010 22:18 16,7 C 8,8 C 0,0 UV-I 0,0 C 54 % 87 % 0 % 1025,7 hPa 0,0 l/m 0,8 km/h (0 Bft) 0 min 0,0 km/h (0 Bft)
17.05.2010 22:20 16,7 C 8,9 C 0,0 UV-I 0,0 C 54 % 87 % 0 % 1025,7 hPa 0,0 l/m 0,4 km/h (0 Bft) 0 min 0,0 km/h (0 Bft)
17.05.2010 22:22 16,7 C 8,8 C 0,0 UV-I 0,0 C 54 % 87 % 0 % 1025,7 hPa 0,0 l/m 0,4 km/h (0 Bft) 0 min 0,0 km/h (0 Bft)
17.05.2010 22:24 16,7 C 8,8 C 0,0 UV-I 0,0 C 54 % 87 % 0 % 1025,7 hPa 0,0 l/m 0,0 km/h (0 Bft) 0 min 0,0 km/h (0 Bft)
17.05.2010 22:26 16,7 C 8,8 C 0,0 UV-I 0,0 C 54 % 87 % 0 % 1025,7 hPa 0,0 l/m 0,0 km/h (0 Bft) 0 min 0,0 km/h (0 Bft)
17.05.2010 22:28 16,7 C 8,8 C 0,0 UV-I 0,0 C 54 % 88 % 0 % 1025,7 hPa 0,0 l/m 0,0 km/h (0 Bft) 0 min 4,8 km/h (1 Bft)
17.05.2010 22:30 16,6 C 8,7 C 0,0 UV-I 0,0 C 54 % 88 % 0 % 1025,7 hPa 0,0 l/m 0,8 km/h (0 Bft) 0 min 4,8 km/h (1 Bft)
17.05.2010 22:32 16,7 C 8,7 C 0,0 UV-I 0,0 C 54 % 88 % 0 % 1025,8 hPa 0,0 l/m 1,2 km/h (1 Bft) 0 min 4,2 km/h (1 Bft)
17.05.2010 22:36 16,6 C 8,6 C 0,0 UV-I 0,0 C 55 % 89 % 0 % 1025,8 hPa 0,0 l/m 1,6 km/h (1 Bft) 0 min 0,0 km/h (0 Bft)
17.05.2010 22:38 16,6 C 8,6 C 0,0 UV-I 0,0 C 54 % 89 % 0 % 1025,8 hPa 0,0 l/m 1,6 km/h (1 Bft) 0 min 5,8 km/h (2 Bft)
17.05.2010 22:40 16,6 C 8,6 C 0,0 UV-I 0,0 C 55 % 89 % 0 % 1025,8 hPa 0,0 l/m 1,6 km/h (1 Bft) 0 min 3,5 km/h (1 Bft)
17.05.2010 22:42 16,6 C 8,6 C 0,0 UV-I 0,0 C 55 % 89 % 0 % 1025,8 hPa 0,0 l/m 1,6 km/h (1 Bft) 0 min 4,8 km/h (1 Bft)
17.05.2010 22:44 16,6 C 8,7 C 0,0 UV-I 0,0 C 55 % 89 % 0 % 1025,8 hPa 0,0 l/m 2,4 km/h (1 Bft) 0 min 5,8 km/h (2 Bft)
17.05.2010 22:46 16,6 C 8,7 C 0,0 UV-I 0,0 C 55 % 88 % 0 % 1025,8 hPa 0,0 l/m 3,2 km/h (1 Bft) 0 min 10,3 km/h (2 Bft)
17.05.2010 22:50 16,6 C 8,7 C 0,0 UV-I 0,0 C 55 % 88 % 0 % 1025,8 hPa 0,0 l/m 5,2 km/h (1 Bft) 0 min 10,6 km/h (2 Bft)
17.05.2010 22:52 16,6 C 8,8 C 0,0 UV-I 0,0 C 55 % 88 % 0 % 1025,5 hPa 0,0 l/m 5,6 km/h (1 Bft) 0 min 5,5 km/h (1 Bft)
17.05.2010 22:54 16,6 C 8,8 C 0,0 UV-I 0,0 C 55 % 87 % 0 % 1025,5 hPa 0,0 l/m 6,4 km/h (2 Bft) 0 min 6,4 km/h (2 Bft)
17.05.2010 22:56 16,6 C 8,9 C 0,0 UV-I 0,0 C 55 % 87 % 0 % 1025,5 hPa 0,0 l/m 7,2 km/h (2 Bft) 0 min 5,5 km/h (1 Bft)
17.05.2010 22:58 16,6 C 8,9 C 0,0 UV-I 0,0 C 55 % 87 % 0 % 1025,5 hPa 0,0 l/m 6,8 km/h (2 Bft) 0 min 5,5 km/h (1 Bft)
17.05.2010 23:00 16,6 C 8,9 C 0,0 UV-I 0,0 C 55 % 87 % 0 % 1025,5 hPa 0,0 l/m 6,0 km/h (2 Bft) 0 min 4,2 km/h (1 Bft)
17.05.2010 23:02 16,6 C 8,9 C 0,0 UV-I 0,0 C 55 % 87 % 0 % 1025,5 hPa 0,0 l/m 4,8 km/h (1 Bft) 0 min 4,8 km/h (1 Bft)
17.05.2010 23:06 16,6 C 8,8 C 0,0 UV-I 0,0 C 55 % 87 % 0 % 1025,5 hPa 0,0 l/m 4,0 km/h (1 Bft) 0 min 5,1 km/h (1 Bft)
17.05.2010 23:08 16,6 C 8,9 C 0,0 UV-I 0,0 C 55 % 87 % 0 % 1025,5 hPa 0,0 l/m 3,2 km/h (1 Bft) 0 min 4,8 km/h (1 Bft)
17.05.2010 23:10 16,6 C 8,9 C 0,0 UV-I 0,0 C 55 % 87 % 0 % 1025,5 hPa 0,0 l/m 3,2 km/h (1 Bft) 0 min 6,4 km/h (2 Bft)
17.05.2010 23:12 16,5 C 8,9 C 0,0 UV-I 0,0 C 55 % 87 % 0 % 1025,9 hPa 0,0 l/m 4,4 km/h (1 Bft) 0 min 6,4 km/h (2 Bft)
17.05.2010 23:16 16,5 C 8,8 C 0,0 UV-I 0,0 C 55 % 88 % 0 % 1025,9 hPa 0,0 l/m 4,8 km/h (1 Bft) 0 min 3,2 km/h (1 Bft)
17.05.2010 23:18 16,5 C 8,8 C 0,0 UV-I 0,0 C 55 % 88 % 0 % 1025,9 hPa 0,0 l/m 4,4 km/h (1 Bft) 0 min 7,1 km/h (2 Bft)
17.05.2010 23:20 16,5 C 8,8 C 0,0 UV-I 0,0 C 55 % 88 % 0 % 1025,9 hPa 0,0 l/m 4,8 km/h (1 Bft) 0 min 7,4 km/h (2 Bft)
17.05.2010 23:22 16,5 C 8,8 C 0,0 UV-I 0,0 C 55 % 88 % 0 % 1025,9 hPa 0,0 l/m 4,4 km/h (1 Bft) 0 min 4,8 km/h (1 Bft)
17.05.2010 23:24 16,5 C 8,8 C 0,0 UV-I 0,0 C 55 % 88 % 0 % 1025,9 hPa 0,0 l/m 3,6 km/h (1 Bft) 0 min 5,5 km/h (1 Bft)
17.05.2010 23:26 16,5 C 8,8 C 0,0 UV-I 0,0 C 55 % 88 % 0 % 1025,9 hPa 0,0 l/m 3,2 km/h (1 Bft) 0 min 4,2 km/h (1 Bft)
17.05.2010 23:28 16,4 C 8,7 C 0,0 UV-I 0,0 C 55 % 88 % 0 % 1025,9 hPa 0,0 l/m 3,2 km/h (1 Bft) 0 min 3,5 km/h (1 Bft)
17.05.2010 23:30 16,4 C 8,8 C 0,0 UV-I 0,0 C 55 % 88 % 0 % 1025,9 hPa 0,0 l/m 2,4 km/h (1 Bft) 0 min 0,0 km/h (0 Bft)
17.05.2010 23:32 16,4 C 8,8 C 0,0 UV-I 0,0 C 55 % 88 % 0 % 1026,0 hPa 0,0 l/m 1,6 km/h (1 Bft) 0 min 0,0 km/h (0 Bft)
17.05.2010 23:34 16,4 C 8,7 C 0,0 UV-I 0,0 C 55 % 88 % 0 % 1026,0 hPa 0,0 l/m 1,6 km/h (1 Bft) 0 min 3,5 km/h (1 Bft)
17.05.2010 23:38 16,4 C 8,7 C 0,0 UV-I 0,0 C 55 % 88 % 0 % 1026,0 hPa 0,0 l/m 1,2 km/h (1 Bft) 0 min 0,0 km/h (0 Bft)
17.05.2010 23:40 16,4 C 8,7 C 0,0 UV-I 0,0 C 55 % 88 % 0 % 1026,0 hPa 0,0 l/m 0,8 km/h (0 Bft) 0 min 0,0 km/h (0 Bft)
17.05.2010 23:44 16,4 C 8,7 C 0,0 UV-I 0,0 C 55 % 88 % 0 % 1026,0 hPa 0,0 l/m 1,2 km/h (1 Bft) 0 min 3,9 km/h (1 Bft)
17.05.2010 23:46 16,4 C 8,7 C 0,0 UV-I 0,0 C 55 % 88 % 0 % 1026,0 hPa 0,0 l/m 0,8 km/h (0 Bft) 0 min 0,0 km/h (0 Bft)
17.05.2010 23:48 16,4 C 8,7 C 0,0 UV-I 0,0 C 55 % 88 % 0 % 1026,0 hPa 0,0 l/m 0,8 km/h (0 Bft) 0 min 0,0 km/h (0 Bft)
17.05.2010 23:50 16,4 C 8,7 C 0,0 UV-I 0,0 C 55 % 88 % 0 % 1026,0 hPa 0,0 l/m 0,8 km/h (0 Bft) 0 min 0,0 km/h (0 Bft)
17.05.2010 23:52 16,4 C 8,7 C 0,0 UV-I 0,0 C 55 % 88 % 0 % 1026,0 hPa 0,0 l/m 0,8 km/h (0 Bft) 0 min 0,0 km/h (0 Bft)
17.05.2010 23:54 16,4 C 8,7 C 0,0 UV-I 0,0 C 55 % 88 % 0 % 1026,0 hPa 0,0 l/m 0,8 km/h (0 Bft) 0 min 0,0 km/h (0 Bft)
17.05.2010 23:56 16,4 C 8,7 C 0,0 UV-I 0,0 C 55 % 88 % 0 % 1026,0 hPa 0,0 l/m 0,4 km/h (0 Bft) 0 min 0,0 km/h (0 Bft)
_ Min-Zeit 06:02 01:30 00:00 00:00 15:40 15:14 00:00 00:00 - 00:00 - 00:00
Minimum _ 16,2 C 7,5 C 0,0 UV-I 0,0 C 48 % 62 % 0 % 1018,8 hPa - 0,0 km/h (0 Bft) - 0,0 km/h (0 Bft)
_ Max-Zeit 15:16 15:12 15:12 12:38 22:36 10:54 12:04 23:32 15:40 19:14 11:56 19:10
Maximum _ 19,2 C 16,2 C 9,8 UV-I 6,5 C 55 % 91 % 100 % 1026,0 hPa 0,7 l/m 12,0 km/h
W (2 Bft)
2 min 25,1 km/h
W-SW (4 Bft)
Durchschnitt _ 17,1 C 10,7 C 1,1 UV-I 0,7 C 52 % 81 % 16 % 1021,7 hPa #4,1 l/m 2,3 km/h (1 Bft) #1:28 h 3,0 km/h (1 Bft)
© 2012 W. Hausmann